NOAA Web Site Link Tides and Currents Home Page Transparent placeholder image

PORTS® Data Listing: 8632837 Rappahannock Light, VA

CO-OPS RAW PORTS DATA

************************      PRELIMINARY DATA      ************************** 

     THIS RAW DATA HAS NOT BEEN SUBJECT TO THE NATIONAL OCEAN SERVICE'S        
     QUALITY CONTROL OR QUALITY ASSURANCE PROCEDURES AND DOES NOT MEET         
     THE CRITERIA AND STANDARDS OF OFFICIAL NATIONAL OCEAN SERVICE             
     DATA.  IT IS RELEASED FOR LIMITED PUBLIC USE AS PRELIMINARY DATA TO       
     BE USED ONLY WITH APPROPRIATE CAUTION.                                    

************************      PRELIMINARY DATA      ************************** 


       CD   -   Calendar date
       T    -   Time
       TZ   -   Timezone
       PW   -   Predicted water level (feet above MLLW)
       OW   -   Observed water level (feet above MLLW)
       WS   -   Wind speed (knots)
       WD   -   Wind direction (degrees true)
       WG   -   Wind gust (knots)
       AT   -   Air temperature (degrees farenheit)
       WT   -   Water temperature (degrees farenheit)
       AP   -   Air pressure (millibars)
       SA   -   Salinty (PSU - Practical Salinity Units)
       SG   -   Specific gravity
       RH   -   Relative humidity
       AG   -   Air gap (feet)
       VI   -   Visibility (nautical miles)

       ** NOTE **
       A variable that has its data fields filled with "9"s, indicates that
       data was not collected for that sample period.
       **********


STATION NAME: Rappahannock Light (8632837)
****************************************************************************************************
    CD       T    TZ    PW     OW    WS   WD   WG    AT    WT    AP    SA    SG     RH    AG   VI
****************************************************************************************************
2019/05/21 16:42 EDT  -99.99 -99.99   19    6   24 -99.9 -99.9 1016.6 -9.9 -9.999 -99.9 -99.99 -9.99
2019/05/21 16:48 EDT  -99.99 -99.99   21    4   23 -99.9 -99.9 1016.7 -9.9 -9.999 -99.9 -99.99 -9.99
2019/05/21 16:54 EDT  -99.99 -99.99   19    6   22 -99.9 -99.9 1016.8 -9.9 -9.999 -99.9 -99.99 -9.99
2019/05/21 17:00 EDT  -99.99 -99.99   20    6   22 -99.9 -99.9 1016.8 -9.9 -9.999 -99.9 -99.99 -9.99
2019/05/21 17:06 EDT  -99.99 -99.99   17    5   22 -99.9 -99.9 1016.9 -9.9 -9.999 -99.9 -99.99 -9.99
2019/05/21 17:12 EDT  -99.99 -99.99   16    7   21 -99.9 -99.9 1016.9 -9.9 -9.999 -99.9 -99.99 -9.99
2019/05/21 17:18 EDT  -99.99 -99.99   16    8   20 -99.9 -99.9 1016.9 -9.9 -9.999 -99.9 -99.99 -9.99
2019/05/21 17:24 EDT  -99.99 -99.99   17    8   20 -99.9 -99.9 1017.1 -9.9 -9.999 -99.9 -99.99 -9.99
2019/05/21 17:30 EDT  -99.99 -99.99   19    8   21 -99.9 -99.9 1017.1 -9.9 -9.999 -99.9 -99.99 -9.99
2019/05/21 17:36 EDT  -99.99 -99.99   17    6   21 -99.9 -99.9 1017.2 -9.9 -9.999 -99.9 -99.99 -9.99
2019/05/21 17:42 EDT  -99.99 -99.99   18    1   20 -99.9 -99.9 1017.3 -9.9 -9.999 -99.9 -99.99 -9.99
2019/05/21 17:48 EDT  -99.99 -99.99   19  357   21 -99.9 -99.9 1017.3 -9.9 -9.999 -99.9 -99.99 -9.99
2019/05/21 17:54 EDT  -99.99 -99.99   18  359   21 -99.9 -99.9 1017.3 -9.9 -9.999 -99.9 -99.99 -9.99
2019/05/21 18:00 EDT  -99.99 -99.99   18    5   21 -99.9 -99.9 1017.4 -9.9 -9.999 -99.9 -99.99 -9.99
2019/05/21 18:06 EDT  -99.99 -99.99   19  355   21 -99.9 -99.9 1017.4 -9.9 -9.999 -99.9 -99.99 -9.99
2019/05/21 18:12 EDT  -99.99 -99.99   18    2   20 -99.9 -99.9 1017.4 -9.9 -9.999 -99.9 -99.99 -9.99
2019/05/21 18:18 EDT  -99.99 -99.99   19    1   21 -99.9 -99.9 1017.5 -9.9 -9.999 -99.9 -99.99 -9.99
2019/05/21 18:24 EDT  -99.99 -99.99   18  354   21 -99.9 -99.9 1017.5 -9.9 -9.999 -99.9 -99.99 -9.99
2019/05/21 18:30 EDT  -99.99 -99.99   18  354   20 -99.9 -99.9 1017.6 -9.9 -9.999 -99.9 -99.99 -9.99
2019/05/21 18:36 EDT  -99.99 -99.99   18  348   22 -99.9 -99.9 1017.7 -9.9 -9.999 -99.9 -99.99 -9.99
2019/05/21 18:42 EDT  -99.99 -99.99   17  343   20 -99.9 -99.9 1017.8 -9.9 -9.999 -99.9 -99.99 -9.99
2019/05/21 18:48 EDT  -99.99 -99.99   17  344   20 -99.9 -99.9 1017.9 -9.9 -9.999 -99.9 -99.99 -9.99
2019/05/21 18:54 EDT  -99.99 -99.99   18  355   21 -99.9 -99.9 1017.9 -9.9 -9.999 -99.9 -99.99 -9.99
2019/05/21 19:00 EDT  -99.99 -99.99   18  349   20 -99.9 -99.9 1017.9 -9.9 -9.999 -99.9 -99.99 -9.99
2019/05/21 19:06 EDT  -99.99 -99.99   18  354   22 -99.9 -99.9 1017.8 -9.9 -9.999 -99.9 -99.99 -9.99
2019/05/21 19:12 EDT  -99.99 -99.99   19  352   21 -99.9 -99.9 1017.9 -9.9 -9.999 -99.9 -99.99 -9.99
2019/05/21 19:18 EDT  -99.99 -99.99   17  350   21 -99.9 -99.9 1018.1 -9.9 -9.999 -99.9 -99.99 -9.99
2019/05/21 19:24 EDT  -99.99 -99.99   17  349   21 -99.9 -99.9 1018.1 -9.9 -9.999 -99.9 -99.99 -9.99
2019/05/21 19:30 EDT  -99.99 -99.99   17  348   19 -99.9 -99.9 1018.0 -9.9 -9.999 -99.9 -99.99 -9.99
2019/05/21 19:36 EDT  -99.99 -99.99   17  347   20 -99.9 -99.9 1018.0 -9.9 -9.999 -99.9 -99.99 -9.99
2019/05/21 19:42 EDT  -99.99 -99.99   16  355   19 -99.9 -99.9 1018.0 -9.9 -9.999 -99.9 -99.99 -9.99
2019/05/21 19:48 EDT  -99.99 -99.99   16   12   18 -99.9 -99.9 1018.0 -9.9 -9.999 -99.9 -99.99 -9.99
2019/05/21 19:54 EDT  -99.99 -99.99   16    5   18 -99.9 -99.9 1018.0 -9.9 -9.999 -99.9 -99.99 -9.99
2019/05/21 20:00 EDT  -99.99 -99.99   17   11   18 -99.9 -99.9 1018.1 -9.9 -9.999 -99.9 -99.99 -9.99
2019/05/21 20:06 EDT  -99.99 -99.99   17   15   18 -99.9 -99.9 1018.2 -9.9 -9.999 -99.9 -99.99 -9.99
2019/05/21 20:12 EDT  -99.99 -99.99   16   16   18 -99.9 -99.9 1018.3 -9.9 -9.999 -99.9 -99.99 -9.99
2019/05/21 20:18 EDT  -99.99 -99.99   15   12   18 -99.9 -99.9 1018.3 -9.9 -9.999 -99.9 -99.99 -9.99
2019/05/21 20:24 EDT  -99.99 -99.99   16    8   17 -99.9 -99.9 1018.4 -9.9 -9.999 -99.9 -99.99 -9.99
2019/05/21 20:30 EDT  -99.99 -99.99   15   11   17 -99.9 -99.9 1018.4 -9.9 -9.999 -99.9 -99.99 -9.99
2019/05/21 20:36 EDT  -99.99 -99.99   16   14   18 -99.9 -99.9 1018.6 -9.9 -9.999 -99.9 -99.99 -9.99
2019/05/21 20:42 EDT  -99.99 -99.99   16    6   19 -99.9 -99.9 1018.6 -9.9 -9.999 -99.9 -99.99 -9.99
2019/05/21 20:48 EDT  -99.99 -99.99   16    9   19 -99.9 -99.9 1018.6 -9.9 -9.999 -99.9 -99.99 -9.99
2019/05/21 20:54 EDT  -99.99 -99.99   17    7   19 -99.9 -99.9 1018.6 -9.9 -9.999 -99.9 -99.99 -9.99
2019/05/21 21:00 EDT  -99.99 -99.99   16    3   18 -99.9 -99.9 1018.7 -9.9 -9.999 -99.9 -99.99 -9.99
2019/05/21 21:06 EDT  -99.99 -99.99   17   13   19 -99.9 -99.9 1018.7 -9.9 -9.999 -99.9 -99.99 -9.99
2019/05/21 21:12 EDT  -99.99 -99.99   17   11   19 -99.9 -99.9 1018.9 -9.9 -9.999 -99.9 -99.99 -9.99
2019/05/21 21:18 EDT  -99.99 -99.99   17    9   20 -99.9 -99.9 1019.0 -9.9 -9.999 -99.9 -99.99 -9.99
2019/05/21 21:24 EDT  -99.99 -99.99   17    5   20 -99.9 -99.9 1019.2 -9.9 -9.999 -99.9 -99.99 -9.99
2019/05/21 21:30 EDT  -99.99 -99.99   17    1   19 -99.9 -99.9 1019.3 -9.9 -9.999 -99.9 -99.99 -9.99
2019/05/21 21:36 EDT  -99.99 -99.99   17  354   19 -99.9 -99.9 1019.4 -9.9 -9.999 -99.9 -99.99 -9.99
2019/05/21 21:42 EDT  -99.99 -99.99   17    1   19 -99.9 -99.9 1019.5 -9.9 -9.999 -99.9 -99.99 -9.99
2019/05/21 21:48 EDT  -99.99 -99.99   17    0   19 -99.9 -99.9 1019.6 -9.9 -9.999 -99.9 -99.99 -9.99
2019/05/21 21:54 EDT  -99.99 -99.99   17   12   19 -99.9 -99.9 1019.5 -9.9 -9.999 -99.9 -99.99 -9.99
2019/05/21 22:00 EDT  -99.99 -99.99   15    8   18 -99.9 -99.9 1019.5 -9.9 -9.999 -99.9 -99.99 -9.99
2019/05/21 22:06 EDT  -99.99 -99.99   15   15   18 -99.9 -99.9 1019.6 -9.9 -9.999 -99.9 -99.99 -9.99
2019/05/21 22:12 EDT  -99.99 -99.99   16    9   18 -99.9 -99.9 1019.7 -9.9 -9.999 -99.9 -99.99 -9.99
2019/05/21 22:18 EDT  -99.99 -99.99   17   15   18 -99.9 -99.9 1019.8 -9.9 -9.999 -99.9 -99.99 -9.99
2019/05/21 22:24 EDT  -99.99 -99.99   16   12   18 -99.9 -99.9 1019.8 -9.9 -9.999 -99.9 -99.99 -9.99
2019/05/21 22:30 EDT  -99.99 -99.99   17   14   19 -99.9 -99.9 1019.9 -9.9 -9.999 -99.9 -99.99 -9.99
2019/05/21 22:36 EDT  -99.99 -99.99   17   12   19 -99.9 -99.9 1020.0 -9.9 -9.999 -99.9 -99.99 -9.99
2019/05/21 22:42 EDT  -99.99 -99.99   17   13   19 -99.9 -99.9 1020.1 -9.9 -9.999 -99.9 -99.99 -9.99
2019/05/21 22:48 EDT  -99.99 -99.99   18   17   19 -99.9 -99.9 1020.1 -9.9 -9.999 -99.9 -99.99 -9.99
2019/05/21 22:54 EDT  -99.99 -99.99   17   21   20 -99.9 -99.9 1020.1 -9.9 -9.999 -99.9 -99.99 -9.99
2019/05/21 23:00 EDT  -99.99 -99.99   16   21   18 -99.9 -99.9 1020.2 -9.9 -9.999 -99.9 -99.99 -9.99
2019/05/21 23:06 EDT  -99.99 -99.99   16   17   18 -99.9 -99.9 1020.2 -9.9 -9.999 -99.9 -99.99 -9.99
2019/05/21 23:12 EDT  -99.99 -99.99   15   20   17 -99.9 -99.9 1020.2 -9.9 -9.999 -99.9 -99.99 -9.99
2019/05/21 23:18 EDT  -99.99 -99.99   15   15   17 -99.9 -99.9 1020.3 -9.9 -9.999 -99.9 -99.99 -9.99
2019/05/21 23:24 EDT  -99.99 -99.99   16   18   17 -99.9 -99.9 1020.4 -9.9 -9.999 -99.9 -99.99 -9.99
2019/05/21 23:30 EDT  -99.99 -99.99   15   13   17 -99.9 -99.9 1020.5 -9.9 -9.999 -99.9 -99.99 -9.99
2019/05/21 23:36 EDT  -99.99 -99.99   15   13   17 -99.9 -99.9 1020.5 -9.9 -9.999 -99.9 -99.99 -9.99
2019/05/21 23:42 EDT  -99.99 -99.99   16   12   17 -99.9 -99.9 1020.6 -9.9 -9.999 -99.9 -99.99 -9.99
2019/05/21 23:48 EDT  -99.99 -99.99   15   14   17 -99.9 -99.9 1020.6 -9.9 -9.999 -99.9 -99.99 -9.99
2019/05/21 23:54 EDT  -99.99 -99.99   16   13   17 -99.9 -99.9 1020.7 -9.9 -9.999 -99.9 -99.99 -9.99
2019/05/22 00:00 EDT  -99.99 -99.99   14   13   17 -99.9 -99.9 1020.7 -9.9 -9.999 -99.9 -99.99 -9.99
2019/05/22 00:06 EDT  -99.99 -99.99   12   16   15 -99.9 -99.9 1020.6 -9.9 -9.999 -99.9 -99.99 -9.99
2019/05/22 00:12 EDT  -99.99 -99.99 -999 -999 -999 -99.9 -99.9 -999.9 -9.9 -9.999 -99.9 -99.99 -9.99
2019/05/22 00:18 EDT  -99.99 -99.99   11   15   13 -99.9 -99.9 1020.8 -9.9 -9.999 -99.9 -99.99 -9.99
2019/05/22 00:24 EDT  -99.99 -99.99   11   12   13 -99.9 -99.9 1020.8 -9.9 -9.999 -99.9 -99.99 -9.99
2019/05/22 00:30 EDT  -99.99 -99.99   11   12   13 -99.9 -99.9 1020.8 -9.9 -9.999 -99.9 -99.99 -9.99
2019/05/22 00:36 EDT  -99.99 -99.99   12   20   12 -99.9 -99.9 1020.8 -9.9 -9.999 -99.9 -99.99 -9.99
2019/05/22 00:42 EDT  -99.99 -99.99   11   24   12 -99.9 -99.9 1020.9 -9.9 -9.999 -99.9 -99.99 -9.99
2019/05/22 00:48 EDT  -99.99 -99.99   10   19   12 -99.9 -99.9 1020.9 -9.9 -9.999 -99.9 -99.99 -9.99
2019/05/22 00:54 EDT  -99.99 -99.99   10   17   11 -99.9 -99.9 1020.9 -9.9 -9.999 -99.9 -99.99 -9.99
2019/05/22 01:00 EDT  -99.99 -99.99   11   19   12 -99.9 -99.9 1020.8 -9.9 -9.999 -99.9 -99.99 -9.99
2019/05/22 01:06 EDT  -99.99 -99.99   11   25   12 -99.9 -99.9 1020.9 -9.9 -9.999 -99.9 -99.99 -9.99
2019/05/22 01:12 EDT  -99.99 -99.99   10   23   12 -99.9 -99.9 1020.9 -9.9 -9.999 -99.9 -99.99 -9.99
2019/05/22 01:18 EDT  -99.99 -99.99   10   26   11 -99.9 -99.9 1020.9 -9.9 -9.999 -99.9 -99.99 -9.99
2019/05/22 01:24 EDT  -99.99 -99.99   11   13   13 -99.9 -99.9 1020.9 -9.9 -9.999 -99.9 -99.99 -9.99
2019/05/22 01:30 EDT  -99.99 -99.99   11   21   12 -99.9 -99.9 1021.0 -9.9 -9.999 -99.9 -99.99 -9.99
2019/05/22 01:36 EDT  -99.99 -99.99   11   18   12 -99.9 -99.9 1021.0 -9.9 -9.999 -99.9 -99.99 -9.99
2019/05/22 01:42 EDT  -99.99 -99.99   10   20   12 -99.9 -99.9 1021.0 -9.9 -9.999 -99.9 -99.99 -9.99
2019/05/22 01:48 EDT  -99.99 -99.99    9   18   12 -99.9 -99.9 1021.1 -9.9 -9.999 -99.9 -99.99 -9.99
2019/05/22 01:54 EDT  -99.99 -99.99   10   20   12 -99.9 -99.9 1021.1 -9.9 -9.999 -99.9 -99.99 -9.99
2019/05/22 02:00 EDT  -99.99 -99.99   11   19   12 -99.9 -99.9 1021.1 -9.9 -9.999 -99.9 -99.99 -9.99
2019/05/22 02:06 EDT  -99.99 -99.99   10   14   12 -99.9 -99.9 1021.1 -9.9 -9.999 -99.9 -99.99 -9.99
2019/05/22 02:12 EDT  -99.99 -99.99   11    9   12 -99.9 -99.9 1021.2 -9.9 -9.999 -99.9 -99.99 -9.99
2019/05/22 02:18 EDT  -99.99 -99.99   11   11   13 -99.9 -99.9 1021.2 -9.9 -9.999 -99.9 -99.99 -9.99
2019/05/22 02:24 EDT  -99.99 -99.99   10    7   13 -99.9 -99.9 1021.3 -9.9 -9.999 -99.9 -99.99 -9.99
2019/05/22 02:30 EDT  -99.99 -99.99   11   11   13 -99.9 -99.9 1021.4 -9.9 -9.999 -99.9 -99.99 -9.99
2019/05/22 02:36 EDT  -99.99 -99.99   10    1   12 -99.9 -99.9 1021.4 -9.9 -9.999 -99.9 -99.99 -9.99
2019/05/22 02:42 EDT  -99.99 -99.99   12  359   13 -99.9 -99.9 1021.4 -9.9 -9.999 -99.9 -99.99 -9.99
2019/05/22 02:48 EDT  -99.99 -99.99   11  357   13 -99.9 -99.9 1021.4 -9.9 -9.999 -99.9 -99.99 -9.99
2019/05/22 02:54 EDT  -99.99 -99.99   13    4   14 -99.9 -99.9 1021.5 -9.9 -9.999 -99.9 -99.99 -9.99
2019/05/22 03:00 EDT  -99.99 -99.99   14    9   15 -99.9 -99.9 1021.4 -9.9 -9.999 -99.9 -99.99 -9.99
2019/05/22 03:06 EDT  -99.99 -99.99   14    5   16 -99.9 -99.9 1021.4 -9.9 -9.999 -99.9 -99.99 -9.99
2019/05/22 03:12 EDT  -99.99 -99.99   14  359   15 -99.9 -99.9 1021.4 -9.9 -9.999 -99.9 -99.99 -9.99
2019/05/22 03:18 EDT  -99.99 -99.99   14    2   15 -99.9 -99.9 1021.4 -9.9 -9.999 -99.9 -99.99 -9.99
2019/05/22 03:24 EDT  -99.99 -99.99   13    1   16 -99.9 -99.9 1021.4 -9.9 -9.999 -99.9 -99.99 -9.99
2019/05/22 03:30 EDT  -99.99 -99.99   13    2   15 -99.9 -99.9 1021.4 -9.9 -9.999 -99.9 -99.99 -9.99
2019/05/22 03:36 EDT  -99.99 -99.99   15   15   17 -99.9 -99.9 1021.5 -9.9 -9.999 -99.9 -99.99 -9.99
2019/05/22 03:42 EDT  -99.99 -99.99   20   23   22 -99.9 -99.9 1021.6 -9.9 -9.999 -99.9 -99.99 -9.99
2019/05/22 03:48 EDT  -99.99 -99.99   23   23   25 -99.9 -99.9 1021.7 -9.9 -9.999 -99.9 -99.99 -9.99
2019/05/22 03:54 EDT  -99.99 -99.99   23   28   25 -99.9 -99.9 1021.7 -9.9 -9.999 -99.9 -99.99 -9.99
2019/05/22 04:00 EDT  -99.99 -99.99   22   30   25 -99.9 -99.9 1021.8 -9.9 -9.999 -99.9 -99.99 -9.99
2019/05/22 04:06 EDT  -99.99 -99.99   20   32   24 -99.9 -99.9 1021.9 -9.9 -9.999 -99.9 -99.99 -9.99
2019/05/22 04:12 EDT  -99.99 -99.99   20   32   22 -99.9 -99.9 1022.1 -9.9 -9.999 -99.9 -99.99 -9.99
2019/05/22 04:18 EDT  -99.99 -99.99   18   40   22 -99.9 -99.9 1022.2 -9.9 -9.999 -99.9 -99.99 -9.99
2019/05/22 04:24 EDT  -99.99 -99.99   18   40   22 -99.9 -99.9 1022.3 -9.9 -9.999 -99.9 -99.99 -9.99
2019/05/22 04:30 EDT  -99.99 -99.99   20   39   23 -99.9 -99.9 1022.3 -9.9 -9.999 -99.9 -99.99 -9.99
2019/05/22 04:36 EDT  -99.99 -99.99   20   40   23 -99.9 -99.9 1022.3 -9.9 -9.999 -99.9 -99.99 -9.99
2019/05/22 04:42 EDT  -99.99 -99.99   19   39   22 -99.9 -99.9 1022.4 -9.9 -9.999 -99.9 -99.99 -9.99
2019/05/22 04:48 EDT  -99.99 -99.99   19   41   21 -99.9 -99.9 1022.4 -9.9 -9.999 -99.9 -99.99 -9.99
2019/05/22 04:54 EDT  -99.99 -99.99   17   43   19 -99.9 -99.9 1022.4 -9.9 -9.999 -99.9 -99.99 -9.99
2019/05/22 05:00 EDT  -99.99 -99.99   16   41   19 -99.9 -99.9 1022.5 -9.9 -9.999 -99.9 -99.99 -9.99
2019/05/22 05:06 EDT  -99.99 -99.99   16   36   17 -99.9 -99.9 1022.5 -9.9 -9.999 -99.9 -99.99 -9.99
2019/05/22 05:12 EDT  -99.99 -99.99   15   39   18 -99.9 -99.9 1022.5 -9.9 -9.999 -99.9 -99.99 -9.99
2019/05/22 05:18 EDT  -99.99 -99.99   15   37   17 -99.9 -99.9 1022.5 -9.9 -9.999 -99.9 -99.99 -9.99
2019/05/22 05:24 EDT  -99.99 -99.99   12   42   16 -99.9 -99.9 1022.6 -9.9 -9.999 -99.9 -99.99 -9.99
2019/05/22 05:30 EDT  -99.99 -99.99   12   45   16 -99.9 -99.9 1022.8 -9.9 -9.999 -99.9 -99.99 -9.99
2019/05/22 05:36 EDT  -99.99 -99.99   13   41   15 -99.9 -99.9 1022.8 -9.9 -9.999 -99.9 -99.99 -9.99
2019/05/22 05:42 EDT  -99.99 -99.99   13   49   14 -99.9 -99.9 1023.0 -9.9 -9.999 -99.9 -99.99 -9.99
2019/05/22 05:48 EDT  -99.99 -99.99   12   43   14 -99.9 -99.9 1023.2 -9.9 -9.999 -99.9 -99.99 -9.99
2019/05/22 05:54 EDT  -99.99 -99.99   12   47   14 -99.9 -99.9 1023.2 -9.9 -9.999 -99.9 -99.99 -9.99
2019/05/22 06:00 EDT  -99.99 -99.99   12   51   14 -99.9 -99.9 1023.3 -9.9 -9.999 -99.9 -99.99 -9.99
2019/05/22 06:06 EDT  -99.99 -99.99   13   51   14 -99.9 -99.9 1023.4 -9.9 -9.999 -99.9 -99.99 -9.99
2019/05/22 06:12 EDT  -99.99 -99.99   13   50   14 -99.9 -99.9 1023.3 -9.9 -9.999 -99.9 -99.99 -9.99
2019/05/22 06:18 EDT  -99.99 -99.99   13   50   14 -99.9 -99.9 1023.3 -9.9 -9.999 -99.9 -99.99 -9.99
2019/05/22 06:24 EDT  -99.99 -99.99   13   48   14 -99.9 -99.9 1023.4 -9.9 -9.999 -99.9 -99.99 -9.99
2019/05/22 06:30 EDT  -99.99 -99.99   12   51   14 -99.9 -99.9 1023.4 -9.9 -9.999 -99.9 -99.99 -9.99
2019/05/22 06:36 EDT  -99.99 -99.99   13   48   14 -99.9 -99.9 1023.5 -9.9 -9.999 -99.9 -99.99 -9.99
2019/05/22 06:42 EDT  -99.99 -99.99   12   51   15 -99.9 -99.9 1023.6 -9.9 -9.999 -99.9 -99.99 -9.99
2019/05/22 06:48 EDT  -99.99 -99.99   12   56   14 -99.9 -99.9 1023.8 -9.9 -9.999 -99.9 -99.99 -9.99
2019/05/22 06:54 EDT  -99.99 -99.99   12   55   13 -99.9 -99.9 1023.9 -9.9 -9.999 -99.9 -99.99 -9.99
2019/05/22 07:00 EDT  -99.99 -99.99   10   58   13 -99.9 -99.9 1024.0 -9.9 -9.999 -99.9 -99.99 -9.99
2019/05/22 07:06 EDT  -99.99 -99.99   10   54   12 -99.9 -99.9 1024.1 -9.9 -9.999 -99.9 -99.99 -9.99
2019/05/22 07:12 EDT  -99.99 -99.99   11   50   12 -99.9 -99.9 1024.3 -9.9 -9.999 -99.9 -99.99 -9.99
2019/05/22 07:18 EDT  -99.99 -99.99   10   47   13 -99.9 -99.9 1024.4 -9.9 -9.999 -99.9 -99.99 -9.99
2019/05/22 07:24 EDT  -99.99 -99.99   12   48   13 -99.9 -99.9 1024.4 -9.9 -9.999 -99.9 -99.99 -9.99
2019/05/22 07:30 EDT  -99.99 -99.99   12   46   15 -99.9 -99.9 1024.4 -9.9 -9.999 -99.9 -99.99 -9.99
2019/05/22 07:36 EDT  -99.99 -99.99   11   46   13 -99.9 -99.9 1024.4 -9.9 -9.999 -99.9 -99.99 -9.99
2019/05/22 07:42 EDT  -99.99 -99.99   13   48   14 -99.9 -99.9 1024.4 -9.9 -9.999 -99.9 -99.99 -9.99
2019/05/22 07:48 EDT  -99.99 -99.99   13   49   15 -99.9 -99.9 1024.5 -9.9 -9.999 -99.9 -99.99 -9.99
2019/05/22 07:54 EDT  -99.99 -99.99   11   52   14 -99.9 -99.9 1024.5 -9.9 -9.999 -99.9 -99.99 -9.99
2019/05/22 08:00 EDT  -99.99 -99.99   11   54   13 -99.9 -99.9 1024.7 -9.9 -9.999 -99.9 -99.99 -9.99
2019/05/22 08:06 EDT  -99.99 -99.99   11   55   13 -99.9 -99.9 1024.8 -9.9 -9.999 -99.9 -99.99 -9.99
2019/05/22 08:12 EDT  -99.99 -99.99   11   54   14 -99.9 -99.9 1024.8 -9.9 -9.999 -99.9 -99.99 -9.99
2019/05/22 08:18 EDT  -99.99 -99.99   12   52   13 -99.9 -99.9 1024.8 -9.9 -9.999 -99.9 -99.99 -9.99
2019/05/22 08:24 EDT  -99.99 -99.99   12   48   14 -99.9 -99.9 1024.8 -9.9 -9.999 -99.9 -99.99 -9.99
2019/05/22 08:30 EDT  -99.99 -99.99   13   47   14 -99.9 -99.9 1024.9 -9.9 -9.999 -99.9 -99.99 -9.99
2019/05/22 08:36 EDT  -99.99 -99.99   12   43   14 -99.9 -99.9 1024.9 -9.9 -9.999 -99.9 -99.99 -9.99
2019/05/22 08:42 EDT  -99.99 -99.99   11   47   14 -99.9 -99.9 1025.1 -9.9 -9.999 -99.9 -99.99 -9.99
2019/05/22 08:48 EDT  -99.99 -99.99   11   48   13 -99.9 -99.9 1025.2 -9.9 -9.999 -99.9 -99.99 -9.99
2019/05/22 08:54 EDT  -99.99 -99.99   11   50   13 -99.9 -99.9 1025.1 -9.9 -9.999 -99.9 -99.99 -9.99
2019/05/22 09:00 EDT  -99.99 -99.99   10   52   12 -99.9 -99.9 1025.1 -9.9 -9.999 -99.9 -99.99 -9.99
2019/05/22 09:06 EDT  -99.99 -99.99   10   54   13 -99.9 -99.9 1025.1 -9.9 -9.999 -99.9 -99.99 -9.99
2019/05/22 09:12 EDT  -99.99 -99.99   10   54   12 -99.9 -99.9 1025.2 -9.9 -9.999 -99.9 -99.99 -9.99
2019/05/22 09:18 EDT  -99.99 -99.99    8   66   11 -99.9 -99.9 1025.3 -9.9 -9.999 -99.9 -99.99 -9.99
2019/05/22 09:24 EDT  -99.99 -99.99   10   54   12 -99.9 -99.9 1025.3 -9.9 -9.999 -99.9 -99.99 -9.99
2019/05/22 09:30 EDT  -99.99 -99.99    9   60   12 -99.9 -99.9 1025.4 -9.9 -9.999 -99.9 -99.99 -9.99
2019/05/22 09:36 EDT  -99.99 -99.99   10   60   12 -99.9 -99.9 1025.2 -9.9 -9.999 -99.9 -99.99 -9.99
2019/05/22 09:42 EDT  -99.99 -99.99    8   65   10 -99.9 -99.9 1025.4 -9.9 -9.999 -99.9 -99.99 -9.99
2019/05/22 09:48 EDT  -99.99 -99.99    8   72    9 -99.9 -99.9 1025.5 -9.9 -9.999 -99.9 -99.99 -9.99
2019/05/22 09:54 EDT  -99.99 -99.99    9   73   11 -99.9 -99.9 1025.5 -9.9 -9.999 -99.9 -99.99 -9.99
2019/05/22 10:00 EDT  -99.99 -99.99    7   77   11 -99.9 -99.9 1025.5 -9.9 -9.999 -99.9 -99.99 -9.99
2019/05/22 10:06 EDT  -99.99 -99.99    9   67   10 -99.9 -99.9 1025.6 -9.9 -9.999 -99.9 -99.99 -9.99
2019/05/22 10:12 EDT  -99.99 -99.99    9   68   11 -99.9 -99.9 1025.7 -9.9 -9.999 -99.9 -99.99 -9.99
2019/05/22 10:18 EDT  -99.99 -99.99    8   73   10 -99.9 -99.9 1025.7 -9.9 -9.999 -99.9 -99.99 -9.99
2019/05/22 10:24 EDT  -99.99 -99.99    8   71   11 -99.9 -99.9 1025.8 -9.9 -9.999 -99.9 -99.99 -9.99
2019/05/22 10:30 EDT  -99.99 -99.99    8   70   11 -99.9 -99.9 1025.9 -9.9 -9.999 -99.9 -99.99 -9.99
2019/05/22 10:36 EDT  -99.99 -99.99    8   69   10 -99.9 -99.9 1025.8 -9.9 -9.999 -99.9 -99.99 -9.99
2019/05/22 10:42 EDT  -99.99 -99.99    8   95    9 -99.9 -99.9 1025.8 -9.9 -9.999 -99.9 -99.99 -9.99
2019/05/22 10:48 EDT  -99.99 -99.99    9   94   10 -99.9 -99.9 1025.9 -9.9 -9.999 -99.9 -99.99 -9.99
2019/05/22 10:54 EDT  -99.99 -99.99    8   93   10 -99.9 -99.9 1025.9 -9.9 -9.999 -99.9 -99.99 -9.99
2019/05/22 11:00 EDT  -99.99 -99.99    7   94   11 -99.9 -99.9 1026.0 -9.9 -9.999 -99.9 -99.99 -9.99
2019/05/22 11:06 EDT  -99.99 -99.99    8   87   10 -99.9 -99.9 1025.9 -9.9 -9.999 -99.9 -99.99 -9.99
2019/05/22 11:12 EDT  -99.99 -99.99    7   97   11 -99.9 -99.9 1025.9 -9.9 -9.999 -99.9 -99.99 -9.99
2019/05/22 11:18 EDT  -99.99 -99.99    8   83   10 -99.9 -99.9 1025.9 -9.9 -9.999 -99.9 -99.99 -9.99
2019/05/22 11:24 EDT  -99.99 -99.99    8   80   12 -99.9 -99.9 1026.1 -9.9 -9.999 -99.9 -99.99 -9.99
2019/05/22 11:30 EDT  -99.99 -99.99    8   93   10 -99.9 -99.9 1026.0 -9.9 -9.999 -99.9 -99.99 -9.99
2019/05/22 11:36 EDT  -99.99 -99.99    9   83   10 -99.9 -99.9 1026.1 -9.9 -9.999 -99.9 -99.99 -9.99
2019/05/22 11:42 EDT  -99.99 -99.99    8   83   10 -99.9 -99.9 1026.1 -9.9 -9.999 -99.9 -99.99 -9.99
2019/05/22 11:48 EDT  -99.99 -99.99    8   79   10 -99.9 -99.9 1026.1 -9.9 -9.999 -99.9 -99.99 -9.99
2019/05/22 11:54 EDT  -99.99 -99.99    7   78   11 -99.9 -99.9 1026.1 -9.9 -9.999 -99.9 -99.99 -9.99
2019/05/22 12:00 EDT  -99.99 -99.99    7   87   10 -99.9 -99.9 1026.0 -9.9 -9.999 -99.9 -99.99 -9.99
2019/05/22 12:06 EDT  -99.99 -99.99    8   95   10 -99.9 -99.9 1026.0 -9.9 -9.999 -99.9 -99.99 -9.99
2019/05/22 12:12 EDT  -99.99 -99.99    9   86   12 -99.9 -99.9 1026.0 -9.9 -9.999 -99.9 -99.99 -9.99
2019/05/22 12:18 EDT  -99.99 -99.99    6   83   10 -99.9 -99.9 1025.9 -9.9 -9.999 -99.9 -99.99 -9.99
2019/05/22 12:24 EDT  -99.99 -99.99    8   80    9 -99.9 -99.9 1025.8 -9.9 -9.999 -99.9 -99.99 -9.99
2019/05/22 12:30 EDT  -99.99 -99.99    6   83    9 -99.9 -99.9 1025.9 -9.9 -9.999 -99.9 -99.99 -9.99
2019/05/22 12:36 EDT  -99.99 -99.99    5  127    8 -99.9 -99.9 1025.8 -9.9 -9.999 -99.9 -99.99 -9.99
2019/05/22 12:42 EDT  -99.99 -99.99    5   98    7 -99.9 -99.9 1026.0 -9.9 -9.999 -99.9 -99.99 -9.99
2019/05/22 12:48 EDT  -99.99 -99.99    5   72    6 -99.9 -99.9 1026.0 -9.9 -9.999 -99.9 -99.99 -9.99
2019/05/22 12:54 EDT  -99.99 -99.99    4   81    6 -99.9 -99.9 1026.0 -9.9 -9.999 -99.9 -99.99 -9.99
2019/05/22 13:00 EDT  -99.99 -99.99    5   82    6 -99.9 -99.9 1026.1 -9.9 -9.999 -99.9 -99.99 -9.99
2019/05/22 13:06 EDT  -99.99 -99.99    3   87    5 -99.9 -99.9 1026.1 -9.9 -9.999 -99.9 -99.99 -9.99
2019/05/22 13:12 EDT  -99.99 -99.99    6   82   12 -99.9 -99.9 1026.2 -9.9 -9.999 -99.9 -99.99 -9.99
2019/05/22 13:18 EDT  -99.99 -99.99    9   94   11 -99.9 -99.9 1026.2 -9.9 -9.999 -99.9 -99.99 -9.99
2019/05/22 13:24 EDT  -99.99 -99.99    8   93   11 -99.9 -99.9 1026.2 -9.9 -9.999 -99.9 -99.99 -9.99
2019/05/22 13:30 EDT  -99.99 -99.99   11  102   14 -99.9 -99.9 1026.1 -9.9 -9.999 -99.9 -99.99 -9.99
2019/05/22 13:36 EDT  -99.99 -99.99   10  104   11 -99.9 -99.9 1026.2 -9.9 -9.999 -99.9 -99.99 -9.99
2019/05/22 13:42 EDT  -99.99 -99.99    8  109   11 -99.9 -99.9 1026.1 -9.9 -9.999 -99.9 -99.99 -9.99
2019/05/22 13:48 EDT  -99.99 -99.99    8   93   12 -99.9 -99.9 1026.2 -9.9 -9.999 -99.9 -99.99 -9.99
2019/05/22 13:54 EDT  -99.99 -99.99    8   93   10 -99.9 -99.9 1026.2 -9.9 -9.999 -99.9 -99.99 -9.99
2019/05/22 14:00 EDT  -99.99 -99.99    9   94   10 -99.9 -99.9 1026.2 -9.9 -9.999 -99.9 -99.99 -9.99
2019/05/22 14:06 EDT  -99.99 -99.99    8  104    9 -99.9 -99.9 1026.3 -9.9 -9.999 -99.9 -99.99 -9.99
2019/05/22 14:12 EDT  -99.99 -99.99    8   96    9 -99.9 -99.9 1026.3 -9.9 -9.999 -99.9 -99.99 -9.99
2019/05/22 14:18 EDT  -99.99 -99.99    8   97    9 -99.9 -99.9 1026.4 -9.9 -9.999 -99.9 -99.99 -9.99
2019/05/22 14:24 EDT  -99.99 -99.99    9  112   10 -99.9 -99.9 1026.5 -9.9 -9.999 -99.9 -99.99 -9.99
2019/05/22 14:30 EDT  -99.99 -99.99    8   99   10 -99.9 -99.9 1026.2 -9.9 -9.999 -99.9 -99.99 -9.99
2019/05/22 14:36 EDT  -99.99 -99.99   10  100   11 -99.9 -99.9 1026.0 -9.9 -9.999 -99.9 -99.99 -9.99
2019/05/22 14:42 EDT  -99.99 -99.99    8  102   10 -99.9 -99.9 1026.1 -9.9 -9.999 -99.9 -99.99 -9.99
2019/05/22 14:48 EDT  -99.99 -99.99    8  105    9 -99.9 -99.9 1026.0 -9.9 -9.999 -99.9 -99.99 -9.99
2019/05/22 14:54 EDT  -99.99 -99.99    8  108    9 -99.9 -99.9 1026.0 -9.9 -9.999 -99.9 -99.99 -9.99
2019/05/22 15:00 EDT  -99.99 -99.99    8  104    9 -99.9 -99.9 1026.0 -9.9 -9.999 -99.9 -99.99 -9.99
2019/05/22 15:06 EDT  -99.99 -99.99    7  109    9 -99.9 -99.9 1026.0 -9.9 -9.999 -99.9 -99.99 -9.99
2019/05/22 15:12 EDT  -99.99 -99.99    9  111   10 -99.9 -99.9 1026.0 -9.9 -9.999 -99.9 -99.99 -9.99
2019/05/22 15:18 EDT  -99.99 -99.99    6   84    8 -99.9 -99.9 1026.1 -9.9 -9.999 -99.9 -99.99 -9.99
2019/05/22 15:24 EDT  -99.99 -99.99    5   93    8 -99.9 -99.9 1026.1 -9.9 -9.999 -99.9 -99.99 -9.99
2019/05/22 15:30 EDT  -99.99 -99.99    6   92    9 -99.9 -99.9 1026.2 -9.9 -9.999 -99.9 -99.99 -9.99
2019/05/22 15:36 EDT  -99.99 -99.99    7   82    8 -99.9 -99.9 1026.1 -9.9 -9.999 -99.9 -99.99 -9.99
2019/05/22 15:42 EDT  -99.99 -99.99    7  105    8 -99.9 -99.9 1026.1 -9.9 -9.999 -99.9 -99.99 -9.99
2019/05/22 15:48 EDT  -99.99 -99.99    6  101    8 -99.9 -99.9 1026.0 -9.9 -9.999 -99.9 -99.99 -9.99
2019/05/22 15:54 EDT  -99.99 -99.99    6  109    8 -99.9 -99.9 1026.0 -9.9 -9.999 -99.9 -99.99 -9.99
2019/05/22 16:00 EDT  -99.99 -99.99    6  120    8 -99.9 -99.9 1026.1 -9.9 -9.999 -99.9 -99.99 -9.99
2019/05/22 16:06 EDT  -99.99 -99.99    6  113    8 -99.9 -99.9 1026.1 -9.9 -9.999 -99.9 -99.99 -9.99
2019/05/22 16:12 EDT  -99.99 -99.99    7  108    8 -99.9 -99.9 1026.0 -9.9 -9.999 -99.9 -99.99 -9.99
2019/05/22 16:18 EDT  -99.99 -99.99    7  117    8 -99.9 -99.9 1026.0 -9.9 -9.999 -99.9 -99.99 -9.99
2019/05/22 16:24 EDT  -99.99 -99.99    7  103    8 -99.9 -99.9 1025.9 -9.9 -9.999 -99.9 -99.99 -9.99
2019/05/22 16:30 EDT  -99.99 -99.99    8  126    9 -99.9 -99.9 1025.9 -9.9 -9.999 -99.9 -99.99 -9.99
2019/05/22 16:36 EDT  -99.99 -99.99    6  114    8 -99.9 -99.9 1025.9 -9.9 -9.999 -99.9 -99.99 -9.99
2019/05/22 16:42 EDT  -99.99 -99.99    8  129   10 -99.9 -99.9 1025.9 -9.9 -9.999 -99.9 -99.99 -9.99
2019/05/22 16:48 EDT  -99.99 -99.99    7  120    9 -99.9 -99.9 1025.8 -9.9 -9.999 -99.9 -99.99 -9.99
2019/05/22 16:54 EDT  -99.99 -99.99    7  116    8 -99.9 -99.9 1025.9 -9.9 -9.999 -99.9 -99.99 -9.99
2019/05/22 17:00 EDT  -99.99 -99.99    6  120    7 -99.9 -99.9 1025.9 -9.9 -9.999 -99.9 -99.99 -9.99
2019/05/22 17:06 EDT  -99.99 -99.99    6  115    7 -99.9 -99.9 1025.9 -9.9 -9.999 -99.9 -99.99 -9.99
2019/05/22 17:12 EDT  -99.99 -99.99    8  118    8 -99.9 -99.9 1026.0 -9.9 -9.999 -99.9 -99.99 -9.99
2019/05/22 17:18 EDT  -99.99 -99.99    7  116    8 -99.9 -99.9 1025.8 -9.9 -9.999 -99.9 -99.99 -9.99
2019/05/22 17:24 EDT  -99.99 -99.99    6  121    7 -99.9 -99.9 1025.8 -9.9 -9.999 -99.9 -99.99 -9.99
2019/05/22 17:30 EDT  -99.99 -99.99    5  129    7 -99.9 -99.9 1025.8 -9.9 -9.999 -99.9 -99.99 -9.99
2019/05/22 17:36 EDT  -99.99 -99.99    6  130    7 -99.9 -99.9 1025.7 -9.9 -9.999 -99.9 -99.99 -9.99
2019/05/22 17:42 EDT  -99.99 -99.99    7  145    8 -99.9 -99.9 1025.8 -9.9 -9.999 -99.9 -99.99 -9.99
2019/05/22 17:48 EDT  -99.99 -99.99    5  126    7 -99.9 -99.9 1025.9 -9.9 -9.999 -99.9 -99.99 -9.99
2019/05/22 17:54 EDT  -99.99 -99.99    6  140    7 -99.9 -99.9 1025.9 -9.9 -9.999 -99.9 -99.99 -9.99
2019/05/22 18:00 EDT  -99.99 -99.99    6  137    8 -99.9 -99.9 1025.8 -9.9 -9.999 -99.9 -99.99 -9.99
2019/05/22 18:06 EDT  -99.99 -99.99    7  146    8 -99.9 -99.9 1025.7 -9.9 -9.999 -99.9 -99.99 -9.99
2019/05/22 18:12 EDT  -99.99 -99.99    6  138    8 -99.9 -99.9 1025.6 -9.9 -9.999 -99.9 -99.99 -9.99
2019/05/22 18:18 EDT  -99.99 -99.99    6  163    7 -99.9 -99.9 1025.7 -9.9 -9.999 -99.9 -99.99 -9.99
2019/05/22 18:24 EDT  -99.99 -99.99    7  145    7 -99.9 -99.9 1025.8 -9.9 -9.999 -99.9 -99.99 -9.99
2019/05/22 18:30 EDT  -99.99 -99.99    6  140    7 -99.9 -99.9 1025.8 -9.9 -9.999 -99.9 -99.99 -9.99
2019/05/22 18:36 EDT  -99.99 -99.99    6  143    8 -99.9 -99.9 1025.7 -9.9 -9.999 -99.9 -99.99 -9.99
2019/05/22 18:42 EDT  -99.99 -99.99    8  146   10 -99.9 -99.9 1025.6 -9.9 -9.999 -99.9 -99.99 -9.99
2019/05/22 18:48 EDT  -99.99 -99.99    8  143   10 -99.9 -99.9 1025.5 -9.9 -9.999 -99.9 -99.99 -9.99
2019/05/22 18:54 EDT  -99.99 -99.99    8  147    9 -99.9 -99.9 1025.5 -9.9 -9.999 -99.9 -99.99 -9.99
2019/05/22 19:00 EDT  -99.99 -99.99    9  137   10 -99.9 -99.9 1025.6 -9.9 -9.999 -99.9 -99.99 -9.99
2019/05/22 19:06 EDT  -99.99 -99.99    8  139    9 -99.9 -99.9 1025.6 -9.9 -9.999 -99.9 -99.99 -9.99
2019/05/22 19:12 EDT  -99.99 -99.99    9  142    9 -99.9 -99.9 1025.6 -9.9 -9.999 -99.9 -99.99 -9.99
2019/05/22 19:18 EDT  -99.99 -99.99    8  137    9 -99.9 -99.9 1025.6 -9.9 -9.999 -99.9 -99.99 -9.99
2019/05/22 19:24 EDT  -99.99 -99.99    8  133    9 -99.9 -99.9 1025.6 -9.9 -9.999 -99.9 -99.99 -9.99
2019/05/22 19:30 EDT  -99.99 -99.99    7  129   10 -99.9 -99.9 1025.7 -9.9 -9.999 -99.9 -99.99 -9.99
2019/05/22 19:36 EDT  -99.99 -99.99    8  118   10 -99.9 -99.9 1025.6 -9.9 -9.999 -99.9 -99.99 -9.99
2019/05/22 19:42 EDT  -99.99 -99.99    9  113   10 -99.9 -99.9 1025.5 -9.9 -9.999 -99.9 -99.99 -9.99
2019/05/22 19:48 EDT  -99.99 -99.99    8  122   10 -99.9 -99.9 1025.4 -9.9 -9.999 -99.9 -99.99 -9.99
2019/05/22 19:54 EDT  -99.99 -99.99    9  126   11 -99.9 -99.9 1025.4 -9.9 -9.999 -99.9 -99.99 -9.99
2019/05/22 20:00 EDT  -99.99 -99.99    9  128   11 -99.9 -99.9 1025.3 -9.9 -9.999 -99.9 -99.99 -9.99
2019/05/22 20:06 EDT  -99.99 -99.99    9  129   11 -99.9 -99.9 1025.3 -9.9 -9.999 -99.9 -99.99 -9.99
2019/05/22 20:12 EDT  -99.99 -99.99   11  129   12 -99.9 -99.9 1025.3 -9.9 -9.999 -99.9 -99.99 -9.99
2019/05/22 20:18 EDT  -99.99 -99.99   11  126   12 -99.9 -99.9 1025.3 -9.9 -9.999 -99.9 -99.99 -9.99
2019/05/22 20:24 EDT  -99.99 -99.99   10  126   11 -99.9 -99.9 1025.3 -9.9 -9.999 -99.9 -99.99 -9.99
2019/05/22 20:30 EDT  -99.99 -99.99   10  133   12 -99.9 -99.9 1025.3 -9.9 -9.999 -99.9 -99.99 -9.99
2019/05/22 20:36 EDT  -99.99 -99.99   10  134   12 -99.9 -99.9 1025.2 -9.9 -9.999 -99.9 -99.99 -9.99
2019/05/22 20:42 EDT  -99.99 -99.99   10  128   11 -99.9 -99.9 1025.3 -9.9 -9.999 -99.9 -99.99 -9.99
2019/05/22 20:48 EDT  -99.99 -99.99    9  137   11 -99.9 -99.9 1025.4 -9.9 -9.999 -99.9 -99.99 -9.99
2019/05/22 20:54 EDT  -99.99 -99.99   10  133   11 -99.9 -99.9 1025.4 -9.9 -9.999 -99.9 -99.99 -9.99
2019/05/22 21:00 EDT  -99.99 -99.99   10  131   11 -99.9 -99.9 1025.4 -9.9 -9.999 -99.9 -99.99 -9.99
2019/05/22 21:06 EDT  -99.99 -99.99   10  142   11 -99.9 -99.9 1025.5 -9.9 -9.999 -99.9 -99.99 -9.99
2019/05/22 21:12 EDT  -99.99 -99.99   11  134   11 -99.9 -99.9 1025.6 -9.9 -9.999 -99.9 -99.99 -9.99
2019/05/22 21:18 EDT  -99.99 -99.99   10  131   11 -99.9 -99.9 1025.6 -9.9 -9.999 -99.9 -99.99 -9.99
2019/05/22 21:24 EDT  -99.99 -99.99   10  131   12 -99.9 -99.9 1025.7 -9.9 -9.999 -99.9 -99.99 -9.99
2019/05/22 21:30 EDT  -99.99 -99.99   10  134   12 -99.9 -99.9 1025.8 -9.9 -9.999 -99.9 -99.99 -9.99
2019/05/22 21:36 EDT  -99.99 -99.99    9  136   11 -99.9 -99.9 1025.9 -9.9 -9.999 -99.9 -99.99 -9.99
2019/05/22 21:42 EDT  -99.99 -99.99   10  136   12 -99.9 -99.9 1026.0 -9.9 -9.999 -99.9 -99.99 -9.99
2019/05/22 21:48 EDT  -99.99 -99.99   10  132   12 -99.9 -99.9 1026.0 -9.9 -9.999 -99.9 -99.99 -9.99
2019/05/22 21:54 EDT  -99.99 -99.99   11  133   12 -99.9 -99.9 1026.1 -9.9 -9.999 -99.9 -99.99 -9.99
2019/05/22 22:00 EDT  -99.99 -99.99    9  138   11 -99.9 -99.9 1026.1 -9.9 -9.999 -99.9 -99.99 -9.99
2019/05/22 22:06 EDT  -99.99 -99.99   10  142   11 -99.9 -99.9 1026.1 -9.9 -9.999 -99.9 -99.99 -9.99
2019/05/22 22:12 EDT  -99.99 -99.99   11  136   12 -99.9 -99.9 1026.2 -9.9 -9.999 -99.9 -99.99 -9.99
2019/05/22 22:18 EDT  -99.99 -99.99   10  129   12 -99.9 -99.9 1026.2 -9.9 -9.999 -99.9 -99.99 -9.99
2019/05/22 22:24 EDT  -99.99 -99.99   11  124   12 -99.9 -99.9 1026.2 -9.9 -9.999 -99.9 -99.99 -9.99
2019/05/22 22:30 EDT  -99.99 -99.99   11  119   12 -99.9 -99.9 1026.2 -9.9 -9.999 -99.9 -99.99 -9.99
2019/05/22 22:36 EDT  -99.99 -99.99   10  118   12 -99.9 -99.9 1026.2 -9.9 -9.999 -99.9 -99.99 -9.99
2019/05/22 22:42 EDT  -99.99 -99.99   10  124   11 -99.9 -99.9 1026.3 -9.9 -9.999 -99.9 -99.99 -9.99
2019/05/22 22:48 EDT  -99.99 -99.99    9  137   11 -99.9 -99.9 1026.4 -9.9 -9.999 -99.9 -99.99 -9.99
2019/05/22 22:54 EDT  -99.99 -99.99   10  139   11 -99.9 -99.9 1026.5 -9.9 -9.999 -99.9 -99.99 -9.99
2019/05/22 23:00 EDT  -99.99 -99.99    9  134   11 -99.9 -99.9 1026.5 -9.9 -9.999 -99.9 -99.99 -9.99
2019/05/22 23:06 EDT  -99.99 -99.99    9  130   11 -99.9 -99.9 1026.4 -9.9 -9.999 -99.9 -99.99 -9.99
2019/05/22 23:12 EDT  -99.99 -99.99    9  139   10 -99.9 -99.9 1026.4 -9.9 -9.999 -99.9 -99.99 -9.99
2019/05/22 23:18 EDT  -99.99 -99.99    9  144   10 -99.9 -99.9 1026.4 -9.9 -9.999 -99.9 -99.99 -9.99
2019/05/22 23:24 EDT  -99.99 -99.99   10  146   12 -99.9 -99.9 1026.4 -9.9 -9.999 -99.9 -99.99 -9.99
2019/05/22 23:30 EDT  -99.99 -99.99   11  149   12 -99.9 -99.9 1026.4 -9.9 -9.999 -99.9 -99.99 -9.99
2019/05/22 23:36 EDT  -99.99 -99.99   11  160   12 -99.9 -99.9 1026.4 -9.9 -9.999 -99.9 -99.99 -9.99
2019/05/22 23:42 EDT  -99.99 -99.99   10  157   11 -99.9 -99.9 1026.3 -9.9 -9.999 -99.9 -99.99 -9.99
2019/05/22 23:48 EDT  -99.99 -99.99   11  155   12 -99.9 -99.9 1026.3 -9.9 -9.999 -99.9 -99.99 -9.99
2019/05/22 23:54 EDT  -99.99 -99.99   11  151   12 -99.9 -99.9 1026.2 -9.9 -9.999 -99.9 -99.99 -9.99
2019/05/23 00:00 EDT  -99.99 -99.99   12  157   12 -99.9 -99.9 1026.1 -9.9 -9.999 -99.9 -99.99 -9.99
2019/05/23 00:06 EDT  -99.99 -99.99   12  153   13 -99.9 -99.9 1026.1 -9.9 -9.999 -99.9 -99.99 -9.99
2019/05/23 00:12 EDT  -99.99 -99.99   11  157   12 -99.9 -99.9 1026.1 -9.9 -9.999 -99.9 -99.99 -9.99
2019/05/23 00:18 EDT  -99.99 -99.99   11  148   11 -99.9 -99.9 1026.0 -9.9 -9.999 -99.9 -99.99 -9.99
2019/05/23 00:24 EDT  -99.99 -99.99   10  148   11 -99.9 -99.9 1026.1 -9.9 -9.999 -99.9 -99.99 -9.99
2019/05/23 00:30 EDT  -99.99 -99.99    9  141   11 -99.9 -99.9 1026.0 -9.9 -9.999 -99.9 -99.99 -9.99
2019/05/23 00:36 EDT  -99.99 -99.99    9  138   11 -99.9 -99.9 1026.1 -9.9 -9.999 -99.9 -99.99 -9.99
2019/05/23 00:42 EDT  -99.99 -99.99    9  144   10 -99.9 -99.9 1026.0 -9.9 -9.999 -99.9 -99.99 -9.99
2019/05/23 00:48 EDT  -99.99 -99.99    9  141   10 -99.9 -99.9 1025.9 -9.9 -9.999 -99.9 -99.99 -9.99
2019/05/23 00:54 EDT  -99.99 -99.99    9  142   10 -99.9 -99.9 1025.8 -9.9 -9.999 -99.9 -99.99 -9.99
2019/05/23 01:00 EDT  -99.99 -99.99    9  137   10 -99.9 -99.9 1025.8 -9.9 -9.999 -99.9 -99.99 -9.99
2019/05/23 01:06 EDT  -99.99 -99.99   10  139   11 -99.9 -99.9 1025.7 -9.9 -9.999 -99.9 -99.99 -9.99
2019/05/23 01:12 EDT  -99.99 -99.99    9  135   11 -99.9 -99.9 1025.7 -9.9 -9.999 -99.9 -99.99 -9.99
2019/05/23 01:18 EDT  -99.99 -99.99   10  135   11 -99.9 -99.9 1025.5 -9.9 -9.999 -99.9 -99.99 -9.99
2019/05/23 01:24 EDT  -99.99 -99.99   11  135   12 -99.9 -99.9 1025.5 -9.9 -9.999 -99.9 -99.99 -9.99
2019/05/23 01:30 EDT  -99.99 -99.99   11  131   12 -99.9 -99.9 1025.4 -9.9 -9.999 -99.9 -99.99 -9.99
2019/05/23 01:36 EDT  -99.99 -99.99   10  134   12 -99.9 -99.9 1025.3 -9.9 -9.999 -99.9 -99.99 -9.99
2019/05/23 01:42 EDT  -99.99 -99.99    9  139   11 -99.9 -99.9 1025.1 -9.9 -9.999 -99.9 -99.99 -9.99
2019/05/23 01:48 EDT  -99.99 -99.99    9  137   11 -99.9 -99.9 1025.2 -9.9 -9.999 -99.9 -99.99 -9.99
2019/05/23 01:54 EDT  -99.99 -99.99   10  140   11 -99.9 -99.9 1025.2 -9.9 -9.999 -99.9 -99.99 -9.99
2019/05/23 02:00 EDT  -99.99 -99.99   10  143   12 -99.9 -99.9 1025.1 -9.9 -9.999 -99.9 -99.99 -9.99
2019/05/23 02:06 EDT  -99.99 -99.99   11  155   12 -99.9 -99.9 1025.1 -9.9 -9.999 -99.9 -99.99 -9.99
2019/05/23 02:12 EDT  -99.99 -99.99   11  148   13 -99.9 -99.9 1025.0 -9.9 -9.999 -99.9 -99.99 -9.99
2019/05/23 02:18 EDT  -99.99 -99.99   11  150   13 -99.9 -99.9 1024.9 -9.9 -9.999 -99.9 -99.99 -9.99
2019/05/23 02:24 EDT  -99.99 -99.99   12  153   13 -99.9 -99.9 1024.8 -9.9 -9.999 -99.9 -99.99 -9.99
2019/05/23 02:30 EDT  -99.99 -99.99   12  155   13 -99.9 -99.9 1024.9 -9.9 -9.999 -99.9 -99.99 -9.99
2019/05/23 02:36 EDT  -99.99 -99.99   13  157   15 -99.9 -99.9 1024.9 -9.9 -9.999 -99.9 -99.99 -9.99
2019/05/23 02:42 EDT  -99.99 -99.99   12  161   14 -99.9 -99.9 1024.9 -9.9 -9.999 -99.9 -99.99 -9.99
2019/05/23 02:48 EDT  -99.99 -99.99   13  157   15 -99.9 -99.9 1024.9 -9.9 -9.999 -99.9 -99.99 -9.99
2019/05/23 02:54 EDT  -99.99 -99.99   12  161   15 -99.9 -99.9 1024.8 -9.9 -9.999 -99.9 -99.99 -9.99
2019/05/23 03:00 EDT  -99.99 -99.99   14  157   16 -99.9 -99.9 1024.8 -9.9 -9.999 -99.9 -99.99 -9.99
2019/05/23 03:06 EDT  -99.99 -99.99   14  154   16 -99.9 -99.9 1024.8 -9.9 -9.999 -99.9 -99.99 -9.99
2019/05/23 03:12 EDT  -99.99 -99.99   12  160   15 -99.9 -99.9 1024.8 -9.9 -9.999 -99.9 -99.99 -9.99
2019/05/23 03:18 EDT  -99.99 -99.99   13  161   14 -99.9 -99.9 1024.9 -9.9 -9.999 -99.9 -99.99 -9.99
2019/05/23 03:24 EDT  -99.99 -99.99   13  161   13 -99.9 -99.9 1024.9 -9.9 -9.999 -99.9 -99.99 -9.99
2019/05/23 03:30 EDT  -99.99 -99.99   13  163   14 -99.9 -99.9 1024.8 -9.9 -9.999 -99.9 -99.99 -9.99
2019/05/23 03:36 EDT  -99.99 -99.99   12  166   14 -99.9 -99.9 1024.7 -9.9 -9.999 -99.9 -99.99 -9.99
2019/05/23 03:42 EDT  -99.99 -99.99   12  163   14 -99.9 -99.9 1024.7 -9.9 -9.999 -99.9 -99.99 -9.99
2019/05/23 03:48 EDT  -99.99 -99.99   13  163   14 -99.9 -99.9 1024.7 -9.9 -9.999 -99.9 -99.99 -9.99
2019/05/23 03:54 EDT  -99.99 -99.99   12  167   14 -99.9 -99.9 1024.7 -9.9 -9.999 -99.9 -99.99 -9.99
2019/05/23 04:00 EDT  -99.99 -99.99   12  166   14 -99.9 -99.9 1024.7 -9.9 -9.999 -99.9 -99.99 -9.99
2019/05/23 04:06 EDT  -99.99 -99.99   13  165   14 -99.9 -99.9 1024.6 -9.9 -9.999 -99.9 -99.99 -9.99
2019/05/23 04:12 EDT  -99.99 -99.99   12  165   13 -99.9 -99.9 1024.6 -9.9 -9.999 -99.9 -99.99 -9.99
2019/05/23 04:18 EDT  -99.99 -99.99   12  160   14 -99.9 -99.9 1024.6 -9.9 -9.999 -99.9 -99.99 -9.99
2019/05/23 04:24 EDT  -99.99 -99.99   12  166   14 -99.9 -99.9 1024.6 -9.9 -9.999 -99.9 -99.99 -9.99
2019/05/23 04:30 EDT  -99.99 -99.99   12  168   14 -99.9 -99.9 1024.7 -9.9 -9.999 -99.9 -99.99 -9.99
2019/05/23 04:36 EDT  -99.99 -99.99   12  167   14 -99.9 -99.9 1024.8 -9.9 -9.999 -99.9 -99.99 -9.99
2019/05/23 04:42 EDT  -99.99 -99.99   12  165   14 -99.9 -99.9 1024.8 -9.9 -9.999 -99.9 -99.99 -9.99
2019/05/23 04:48 EDT  -99.99 -99.99   12  160   14 -99.9 -99.9 1024.8 -9.9 -9.999 -99.9 -99.99 -9.99
2019/05/23 04:54 EDT  -99.99 -99.99   13  164   15 -99.9 -99.9 1024.7 -9.9 -9.999 -99.9 -99.99 -9.99
2019/05/23 05:00 EDT  -99.99 -99.99   12  161   14 -99.9 -99.9 1024.7 -9.9 -9.999 -99.9 -99.99 -9.99
2019/05/23 05:06 EDT  -99.99 -99.99   13  159   14 -99.9 -99.9 1024.8 -9.9 -9.999 -99.9 -99.99 -9.99
2019/05/23 05:12 EDT  -99.99 -99.99   13  161   14 -99.9 -99.9 1024.8 -9.9 -9.999 -99.9 -99.99 -9.99
2019/05/23 05:18 EDT  -99.99 -99.99   14  157   15 -99.9 -99.9 1024.9 -9.9 -9.999 -99.9 -99.99 -9.99
2019/05/23 05:24 EDT  -99.99 -99.99   13  155   15 -99.9 -99.9 1024.8 -9.9 -9.999 -99.9 -99.99 -9.99
2019/05/23 05:30 EDT  -99.99 -99.99   14  153   16 -99.9 -99.9 1024.8 -9.9 -9.999 -99.9 -99.99 -9.99
2019/05/23 05:36 EDT  -99.99 -99.99   12  155   15 -99.9 -99.9 1024.8 -9.9 -9.999 -99.9 -99.99 -9.99
2019/05/23 05:42 EDT  -99.99 -99.99   12  156   14 -99.9 -99.9 1024.8 -9.9 -9.999 -99.9 -99.99 -9.99
2019/05/23 05:48 EDT  -99.99 -99.99   13  159   14 -99.9 -99.9 1024.8 -9.9 -9.999 -99.9 -99.99 -9.99
2019/05/23 05:54 EDT  -99.99 -99.99   13  158   14 -99.9 -99.9 1024.9 -9.9 -9.999 -99.9 -99.99 -9.99
2019/05/23 06:00 EDT  -99.99 -99.99   13  159   14 -99.9 -99.9 1024.8 -9.9 -9.999 -99.9 -99.99 -9.99
2019/05/23 06:06 EDT  -99.99 -99.99   13  162   15 -99.9 -99.9 1024.7 -9.9 -9.999 -99.9 -99.99 -9.99
2019/05/23 06:12 EDT  -99.99 -99.99   13  162   14 -99.9 -99.9 1024.7 -9.9 -9.999 -99.9 -99.99 -9.99
2019/05/23 06:18 EDT  -99.99 -99.99   14  162   16 -99.9 -99.9 1024.6 -9.9 -9.999 -99.9 -99.99 -9.99
2019/05/23 06:24 EDT  -99.99 -99.99   14  163   16 -99.9 -99.9 1024.7 -9.9 -9.999 -99.9 -99.99 -9.99
2019/05/23 06:30 EDT  -99.99 -99.99   14  163   15 -99.9 -99.9 1024.7 -9.9 -9.999 -99.9 -99.99 -9.99
2019/05/23 06:36 EDT  -99.99 -99.99   13  169   15 -99.9 -99.9 1024.7 -9.9 -9.999 -99.9 -99.99 -9.99
2019/05/23 06:42 EDT  -99.99 -99.99   14  168   16 -99.9 -99.9 1024.8 -9.9 -9.999 -99.9 -99.99 -9.99
2019/05/23 06:48 EDT  -99.99 -99.99   14  165   15 -99.9 -99.9 1024.8 -9.9 -9.999 -99.9 -99.99 -9.99
2019/05/23 06:54 EDT  -99.99 -99.99   13  161   15 -99.9 -99.9 1024.8 -9.9 -9.999 -99.9 -99.99 -9.99
2019/05/23 07:00 EDT  -99.99 -99.99   13  163   15 -99.9 -99.9 1024.7 -9.9 -9.999 -99.9 -99.99 -9.99
2019/05/23 07:06 EDT  -99.99 -99.99   14  165   15 -99.9 -99.9 1024.8 -9.9 -9.999 -99.9 -99.99 -9.99
2019/05/23 07:12 EDT  -99.99 -99.99   14  167   16 -99.9 -99.9 1024.7 -9.9 -9.999 -99.9 -99.99 -9.99
2019/05/23 07:18 EDT  -99.99 -99.99   14  163   16 -99.9 -99.9 1024.6 -9.9 -9.999 -99.9 -99.99 -9.99
2019/05/23 07:24 EDT  -99.99 -99.99   14  169   16 -99.9 -99.9 1024.5 -9.9 -9.999 -99.9 -99.99 -9.99
2019/05/23 07:30 EDT  -99.99 -99.99   15  167   17 -99.9 -99.9 1024.5 -9.9 -9.999 -99.9 -99.99 -9.99
2019/05/23 07:36 EDT  -99.99 -99.99   14  168   16 -99.9 -99.9 1024.6 -9.9 -9.999 -99.9 -99.99 -9.99
2019/05/23 07:42 EDT  -99.99 -99.99   13  175   15 -99.9 -99.9 1024.6 -9.9 -9.999 -99.9 -99.99 -9.99
2019/05/23 07:48 EDT  -99.99 -99.99   11  174   14 -99.9 -99.9 1024.7 -9.9 -9.999 -99.9 -99.99 -9.99
2019/05/23 07:54 EDT  -99.99 -99.99   13  170   15 -99.9 -99.9 1024.6 -9.9 -9.999 -99.9 -99.99 -9.99
2019/05/23 08:00 EDT  -99.99 -99.99   14  176   17 -99.9 -99.9 1024.6 -9.9 -9.999 -99.9 -99.99 -9.99
2019/05/23 08:06 EDT  -99.99 -99.99   16  176   17 -99.9 -99.9 1024.5 -9.9 -9.999 -99.9 -99.99 -9.99
2019/05/23 08:12 EDT  -99.99 -99.99   16  175   18 -99.9 -99.9 1024.5 -9.9 -9.999 -99.9 -99.99 -9.99
2019/05/23 08:18 EDT  -99.99 -99.99   15  179   18 -99.9 -99.9 1024.6 -9.9 -9.999 -99.9 -99.99 -9.99
2019/05/23 08:24 EDT  -99.99 -99.99   16  179   18 -99.9 -99.9 1024.6 -9.9 -9.999 -99.9 -99.99 -9.99
2019/05/23 08:30 EDT  -99.99 -99.99   15  181   18 -99.9 -99.9 1024.7 -9.9 -9.999 -99.9 -99.99 -9.99
2019/05/23 08:36 EDT  -99.99 -99.99   16  178   17 -99.9 -99.9 1024.8 -9.9 -9.999 -99.9 -99.99 -9.99
2019/05/23 08:42 EDT  -99.99 -99.99   13  183   17 -99.9 -99.9 1024.7 -9.9 -9.999 -99.9 -99.99 -9.99
2019/05/23 08:48 EDT  -99.99 -99.99   14  179   16 -99.9 -99.9 1024.9 -9.9 -9.999 -99.9 -99.99 -9.99
2019/05/23 08:54 EDT  -99.99 -99.99   15  179   17 -99.9 -99.9 1024.9 -9.9 -9.999 -99.9 -99.99 -9.99
2019/05/23 09:00 EDT  -99.99 -99.99   15  181   17 -99.9 -99.9 1024.9 -9.9 -9.999 -99.9 -99.99 -9.99
2019/05/23 09:06 EDT  -99.99 -99.99   17  182   19 -99.9 -99.9 1024.9 -9.9 -9.999 -99.9 -99.99 -9.99
2019/05/23 09:12 EDT  -99.99 -99.99   18  182   19 -99.9 -99.9 1024.8 -9.9 -9.999 -99.9 -99.99 -9.99
2019/05/23 09:18 EDT  -99.99 -99.99   18  182   20 -99.9 -99.9 1024.7 -9.9 -9.999 -99.9 -99.99 -9.99
2019/05/23 09:24 EDT  -99.99 -99.99   17  179   20 -99.9 -99.9 1024.6 -9.9 -9.999 -99.9 -99.99 -9.99
2019/05/23 09:30 EDT  -99.99 -99.99   18  184   20 -99.9 -99.9 1024.6 -9.9 -9.999 -99.9 -99.99 -9.99
2019/05/23 09:36 EDT  -99.99 -99.99   18  184   20 -99.9 -99.9 1024.6 -9.9 -9.999 -99.9 -99.99 -9.99
2019/05/23 09:42 EDT  -99.99 -99.99   18  183   20 -99.9 -99.9 1024.5 -9.9 -9.999 -99.9 -99.99 -9.99
2019/05/23 09:48 EDT  -99.99 -99.99   17  183   20 -99.9 -99.9 1024.5 -9.9 -9.999 -99.9 -99.99 -9.99
2019/05/23 09:54 EDT  -99.99 -99.99   17  180   19 -99.9 -99.9 1024.3 -9.9 -9.999 -99.9 -99.99 -9.99
2019/05/23 10:00 EDT  -99.99 -99.99   17  181   19 -99.9 -99.9 1024.3 -9.9 -9.999 -99.9 -99.99 -9.99
2019/05/23 10:06 EDT  -99.99 -99.99   17  179   20 -99.9 -99.9 1024.2 -9.9 -9.999 -99.9 -99.99 -9.99
2019/05/23 10:12 EDT  -99.99 -99.99   18  182   20 -99.9 -99.9 1024.0 -9.9 -9.999 -99.9 -99.99 -9.99
2019/05/23 10:18 EDT  -99.99 -99.99   17  179   19 -99.9 -99.9 1023.9 -9.9 -9.999 -99.9 -99.99 -9.99
2019/05/23 10:24 EDT  -99.99 -99.99   17  178   19 -99.9 -99.9 1023.9 -9.9 -9.999 -99.9 -99.99 -9.99
2019/05/23 10:30 EDT  -99.99 -99.99   16  179   20 -99.9 -99.9 1023.8 -9.9 -9.999 -99.9 -99.99 -9.99
2019/05/23 10:36 EDT  -99.99 -99.99   18  181   21 -99.9 -99.9 1023.7 -9.9 -9.999 -99.9 -99.99 -9.99
2019/05/23 10:42 EDT  -99.99 -99.99   18  180   20 -99.9 -99.9 1023.7 -9.9 -9.999 -99.9 -99.99 -9.99
2019/05/23 10:48 EDT  -99.99 -99.99   17  181   19 -99.9 -99.9 1023.6 -9.9 -9.999 -99.9 -99.99 -9.99
2019/05/23 10:54 EDT  -99.99 -99.99   17  180   20 -99.9 -99.9 1023.5 -9.9 -9.999 -99.9 -99.99 -9.99
2019/05/23 11:00 EDT  -99.99 -99.99   17  178   19 -99.9 -99.9 1023.4 -9.9 -9.999 -99.9 -99.99 -9.99
2019/05/23 11:06 EDT  -99.99 -99.99   17  178   19 -99.9 -99.9 1023.3 -9.9 -9.999 -99.9 -99.99 -9.99
2019/05/23 11:12 EDT  -99.99 -99.99   17  181   19 -99.9 -99.9 1023.3 -9.9 -9.999 -99.9 -99.99 -9.99
2019/05/23 11:18 EDT  -99.99 -99.99   17  182   20 -99.9 -99.9 1023.3 -9.9 -9.999 -99.9 -99.99 -9.99
2019/05/23 11:24 EDT  -99.99 -99.99   16  179   18 -99.9 -99.9 1023.4 -9.9 -9.999 -99.9 -99.99 -9.99
2019/05/23 11:30 EDT  -99.99 -99.99   17  181   20 -99.9 -99.9 1023.3 -9.9 -9.999 -99.9 -99.99 -9.99
2019/05/23 11:36 EDT  -99.99 -99.99   17  180   19 -99.9 -99.9 1023.3 -9.9 -9.999 -99.9 -99.99 -9.99
2019/05/23 11:42 EDT  -99.99 -99.99   17  180   20 -99.9 -99.9 1023.2 -9.9 -9.999 -99.9 -99.99 -9.99
2019/05/23 11:48 EDT  -99.99 -99.99   18  179   20 -99.9 -99.9 1023.3 -9.9 -9.999 -99.9 -99.99 -9.99
2019/05/23 11:54 EDT  -99.99 -99.99   18  179   20 -99.9 -99.9 1023.2 -9.9 -9.999 -99.9 -99.99 -9.99
2019/05/23 12:00 EDT  -99.99 -99.99   17  177   19 -99.9 -99.9 1023.1 -9.9 -9.999 -99.9 -99.99 -9.99
2019/05/23 12:06 EDT  -99.99 -99.99   17  177   19 -99.9 -99.9 1023.1 -9.9 -9.999 -99.9 -99.99 -9.99
2019/05/23 12:12 EDT  -99.99 -99.99   17  174   19 -99.9 -99.9 1022.9 -9.9 -9.999 -99.9 -99.99 -9.99
2019/05/23 12:18 EDT  -99.99 -99.99   18  175   20 -99.9 -99.9 1022.8 -9.9 -9.999 -99.9 -99.99 -9.99
2019/05/23 12:24 EDT  -99.99 -99.99   17  174   19 -99.9 -99.9 1022.7 -9.9 -9.999 -99.9 -99.99 -9.99
2019/05/23 12:30 EDT  -99.99 -99.99   17  178   20 -99.9 -99.9 1022.5 -9.9 -9.999 -99.9 -99.99 -9.99
2019/05/23 12:36 EDT  -99.99 -99.99   17  178   19 -99.9 -99.9 1022.5 -9.9 -9.999 -99.9 -99.99 -9.99
2019/05/23 12:42 EDT  -99.99 -99.99   17  179   18 -99.9 -99.9 1022.3 -9.9 -9.999 -99.9 -99.99 -9.99
2019/05/23 12:48 EDT  -99.99 -99.99   17  178   19 -99.9 -99.9 1022.1 -9.9 -9.999 -99.9 -99.99 -9.99
2019/05/23 12:54 EDT  -99.99 -99.99   17  179   19 -99.9 -99.9 1022.0 -9.9 -9.999 -99.9 -99.99 -9.99
2019/05/23 13:00 EDT  -99.99 -99.99   16  178   17 -99.9 -99.9 1021.7 -9.9 -9.999 -99.9 -99.99 -9.99
2019/05/23 13:06 EDT  -99.99 -99.99   16  178   18 -99.9 -99.9 1021.5 -9.9 -9.999 -99.9 -99.99 -9.99
2019/05/23 13:12 EDT  -99.99 -99.99   16  179   18 -99.9 -99.9 1021.4 -9.9 -9.999 -99.9 -99.99 -9.99
2019/05/23 13:18 EDT  -99.99 -99.99   17  180   19 -99.9 -99.9 1021.2 -9.9 -9.999 -99.9 -99.99 -9.99
2019/05/23 13:24 EDT  -99.99 -99.99   16  177   18 -99.9 -99.9 1021.2 -9.9 -9.999 -99.9 -99.99 -9.99
2019/05/23 13:30 EDT  -99.99 -99.99   17  176   18 -99.9 -99.9 1021.0 -9.9 -9.999 -99.9 -99.99 -9.99
2019/05/23 13:36 EDT  -99.99 -99.99   17  176   18 -99.9 -99.9 1020.9 -9.9 -9.999 -99.9 -99.99 -9.99
2019/05/23 13:42 EDT  -99.99 -99.99   15  175   17 -99.9 -99.9 1020.8 -9.9 -9.999 -99.9 -99.99 -9.99
2019/05/23 13:48 EDT  -99.99 -99.99   14  175   15 -99.9 -99.9 1020.6 -9.9 -9.999 -99.9 -99.99 -9.99
2019/05/23 13:54 EDT  -99.99 -99.99   15  177   15 -99.9 -99.9 1020.5 -9.9 -9.999 -99.9 -99.99 -9.99
2019/05/23 14:00 EDT  -99.99 -99.99   14  175   16 -99.9 -99.9 1020.5 -9.9 -9.999 -99.9 -99.99 -9.99
2019/05/23 14:06 EDT  -99.99 -99.99   15  176   17 -99.9 -99.9 1020.4 -9.9 -9.999 -99.9 -99.99 -9.99
2019/05/23 14:12 EDT  -99.99 -99.99   15  176   16 -99.9 -99.9 1020.3 -9.9 -9.999 -99.9 -99.99 -9.99
2019/05/23 14:18 EDT  -99.99 -99.99   16  183   17 -99.9 -99.9 1020.2 -9.9 -9.999 -99.9 -99.99 -9.99
2019/05/23 14:24 EDT  -99.99 -99.99   17  184   18 -99.9 -99.9 1020.2 -9.9 -9.999 -99.9 -99.99 -9.99
2019/05/23 14:30 EDT  -99.99 -99.99   17  184   18 -99.9 -99.9 1020.2 -9.9 -9.999 -99.9 -99.99 -9.99
2019/05/23 14:36 EDT  -99.99 -99.99   17  184   17 -99.9 -99.9 1020.2 -9.9 -9.999 -99.9 -99.99 -9.99
2019/05/23 14:42 EDT  -99.99 -99.99   16  182   17 -99.9 -99.9 1020.2 -9.9 -9.999 -99.9 -99.99 -9.99
2019/05/23 14:48 EDT  -99.99 -99.99   15  178   17 -99.9 -99.9 1020.2 -9.9 -9.999 -99.9 -99.99 -9.99
2019/05/23 14:54 EDT  -99.99 -99.99   15  178   17 -99.9 -99.9 1020.1 -9.9 -9.999 -99.9 -99.99 -9.99
2019/05/23 15:00 EDT  -99.99 -99.99   14  177   16 -99.9 -99.9 1020.0 -9.9 -9.999 -99.9 -99.99 -9.99
2019/05/23 15:06 EDT  -99.99 -99.99   14  175   15 -99.9 -99.9 1020.0 -9.9 -9.999 -99.9 -99.99 -9.99
2019/05/23 15:12 EDT  -99.99 -99.99   14  175   16 -99.9 -99.9 1020.0 -9.9 -9.999 -99.9 -99.99 -9.99
2019/05/23 15:18 EDT  -99.99 -99.99   15  183   16 -99.9 -99.9 1019.8 -9.9 -9.999 -99.9 -99.99 -9.99
2019/05/23 15:24 EDT  -99.99 -99.99   14  179   16 -99.9 -99.9 1019.7 -9.9 -9.999 -99.9 -99.99 -9.99
2019/05/23 15:30 EDT  -99.99 -99.99   15  180   16 -99.9 -99.9 1019.6 -9.9 -9.999 -99.9 -99.99 -9.99
2019/05/23 15:36 EDT  -99.99 -99.99   14  184   15 -99.9 -99.9 1019.4 -9.9 -9.999 -99.9 -99.99 -9.99
2019/05/23 15:42 EDT  -99.99 -99.99   13  174   15 -99.9 -99.9 1019.2 -9.9 -9.999 -99.9 -99.99 -9.99
2019/05/23 15:48 EDT  -99.99 -99.99   15  178   16 -99.9 -99.9 1018.9 -9.9 -9.999 -99.9 -99.99 -9.99
2019/05/23 15:54 EDT  -99.99 -99.99   15  178   16 -99.9 -99.9 1018.7 -9.9 -9.999 -99.9 -99.99 -9.99
2019/05/23 16:00 EDT  -99.99 -99.99   14  180   15 -99.9 -99.9 1018.5 -9.9 -9.999 -99.9 -99.99 -9.99
2019/05/23 16:06 EDT  -99.99 -99.99   14  172   15 -99.9 -99.9 1018.4 -9.9 -9.999 -99.9 -99.99 -9.99
2019/05/23 16:12 EDT  -99.99 -99.99   14  169   15 -99.9 -99.9 1018.3 -9.9 -9.999 -99.9 -99.99 -9.99
2019/05/23 16:18 EDT  -99.99 -99.99   13  169   15 -99.9 -99.9 1018.2 -9.9 -9.999 -99.9 -99.99 -9.99
2019/05/23 16:24 EDT  -99.99 -99.99   11  187   13 -99.9 -99.9 1018.0 -9.9 -9.999 -99.9 -99.99 -9.99
2019/05/23 16:30 EDT  -99.99 -99.99   11  193   12 -99.9 -99.9 1018.1 -9.9 -9.999 -99.9 -99.99 -9.99
2019/05/23 16:36 EDT  -99.99 -99.99   12  198   14 -99.9 -99.9 1018.1 -9.9 -9.999 -99.9 -99.99 -9.99
2019/05/23 16:42 EDT  -99.99 -99.99   13  200   14 -99.9 -99.9 1018.0 -9.9 -9.999 -99.9 -99.99 -9.99
2019/05/23 16:48 EDT  -99.99 -99.99   13  199   15 -99.9 -99.9 1017.9 -9.9 -9.999 -99.9 -99.99 -9.99
2019/05/23 16:54 EDT  -99.99 -99.99   15  199   16 -99.9 -99.9 1017.7 -9.9 -9.999 -99.9 -99.99 -9.99
2019/05/23 17:00 EDT  -99.99 -99.99   16  208   19 -99.9 -99.9 1017.6 -9.9 -9.999 -99.9 -99.99 -9.99
2019/05/23 17:06 EDT  -99.99 -99.99   17  212   20 -99.9 -99.9 1017.9 -9.9 -9.999 -99.9 -99.99 -9.99
2019/05/23 17:12 EDT  -99.99 -99.99   17  209   19 -99.9 -99.9 1018.1 -9.9 -9.999 -99.9 -99.99 -9.99
2019/05/23 17:18 EDT  -99.99 -99.99   16  202   19 -99.9 -99.9 1018.0 -9.9 -9.999 -99.9 -99.99 -9.99
2019/05/23 17:24 EDT  -99.99 -99.99   16  203   18 -99.9 -99.9 1017.9 -9.9 -9.999 -99.9 -99.99 -9.99
2019/05/23 17:30 EDT  -99.99 -99.99   16  200   17 -99.9 -99.9 1017.7 -9.9 -9.999 -99.9 -99.99 -9.99
2019/05/23 17:36 EDT  -99.99 -99.99   16  199   17 -99.9 -99.9 1017.6 -9.9 -9.999 -99.9 -99.99 -9.99
2019/05/23 17:42 EDT  -99.99 -99.99   15  196   17 -99.9 -99.9 1017.6 -9.9 -9.999 -99.9 -99.99 -9.99
2019/05/23 17:48 EDT  -99.99 -99.99   14  193   15 -99.9 -99.9 1017.6 -9.9 -9.999 -99.9 -99.99 -9.99
2019/05/23 17:54 EDT  -99.99 -99.99   15  205   17 -99.9 -99.9 1017.8 -9.9 -9.999 -99.9 -99.99 -9.99
2019/05/23 18:00 EDT  -99.99 -99.99   13  208   16 -99.9 -99.9 1018.1 -9.9 -9.999 -99.9 -99.99 -9.99
2019/05/23 18:06 EDT  -99.99 -99.99   13  208   14 -99.9 -99.9 1017.9 -9.9 -9.999 -99.9 -99.99 -9.99
2019/05/23 18:12 EDT  -99.99 -99.99   12  213   13 -99.9 -99.9 1017.8 -9.9 -9.999 -99.9 -99.99 -9.99
2019/05/23 18:18 EDT  -99.99 -99.99   13  200   14 -99.9 -99.9 1017.9 -9.9 -9.999 -99.9 -99.99 -9.99
2019/05/23 18:24 EDT  -99.99 -99.99   12  191   13 -99.9 -99.9 1017.5 -9.9 -9.999 -99.9 -99.99 -9.99
2019/05/23 18:30 EDT  -99.99 -99.99   13  187   13 -99.9 -99.9 1017.3 -9.9 -9.999 -99.9 -99.99 -9.99
2019/05/23 18:36 EDT  -99.99 -99.99   12  175   13 -99.9 -99.9 1017.4 -9.9 -9.999 -99.9 -99.99 -9.99
2019/05/23 18:42 EDT  -99.99 -99.99   13  169   14 -99.9 -99.9 1017.2 -9.9 -9.999 -99.9 -99.99 -9.99
2019/05/23 18:48 EDT  -99.99 -99.99   16  186   17 -99.9 -99.9 1017.2 -9.9 -9.999 -99.9 -99.99 -9.99
2019/05/23 18:54 EDT  -99.99 -99.99   10  176   17 -99.9 -99.9 1017.3 -9.9 -9.999 -99.9 -99.99 -9.99
2019/05/23 19:00 EDT  -99.99 -99.99    9  201   15 -99.9 -99.9 1017.7 -9.9 -9.999 -99.9 -99.99 -9.99
2019/05/23 19:06 EDT  -99.99 -99.99   11  191   11 -99.9 -99.9 1017.7 -9.9 -9.999 -99.9 -99.99 -9.99
2019/05/23 19:12 EDT  -99.99 -99.99   11  185   12 -99.9 -99.9 1017.5 -9.9 -9.999 -99.9 -99.99 -9.99
2019/05/23 19:18 EDT  -99.99 -99.99   11  186   12 -99.9 -99.9 1017.4 -9.9 -9.999 -99.9 -99.99 -9.99
2019/05/23 19:24 EDT  -99.99 -99.99   12  177   12 -99.9 -99.9 1017.5 -9.9 -9.999 -99.9 -99.99 -9.99
2019/05/23 19:30 EDT  -99.99 -99.99   11  176   12 -99.9 -99.9 1017.5 -9.9 -9.999 -99.9 -99.99 -9.99
2019/05/23 19:36 EDT  -99.99 -99.99   12  173   12 -99.9 -99.9 1017.3 -9.9 -9.999 -99.9 -99.99 -9.99
2019/05/23 19:42 EDT  -99.99 -99.99   11  173   12 -99.9 -99.9 1017.3 -9.9 -9.999 -99.9 -99.99 -9.99
2019/05/23 19:48 EDT  -99.99 -99.99   10  174   11 -99.9 -99.9 1017.2 -9.9 -9.999 -99.9 -99.99 -9.99
2019/05/23 19:54 EDT  -99.99 -99.99   10  185   11 -99.9 -99.9 1017.3 -9.9 -9.999 -99.9 -99.99 -9.99
2019/05/23 20:00 EDT  -99.99 -99.99   11  191   12 -99.9 -99.9 1017.3 -9.9 -9.999 -99.9 -99.99 -9.99
2019/05/23 20:06 EDT  -99.99 -99.99   11  191   12 -99.9 -99.9 1017.3 -9.9 -9.999 -99.9 -99.99 -9.99
2019/05/23 20:12 EDT  -99.99 -99.99   13  191   14 -99.9 -99.9 1017.1 -9.9 -9.999 -99.9 -99.99 -9.99
2019/05/23 20:18 EDT  -99.99 -99.99   13  193   14 -99.9 -99.9 1017.1 -9.9 -9.999 -99.9 -99.99 -9.99
2019/05/23 20:24 EDT  -99.99 -99.99   13  195   14 -99.9 -99.9 1017.2 -9.9 -9.999 -99.9 -99.99 -9.99
2019/05/23 20:30 EDT  -99.99 -99.99   12  198   15 -99.9 -99.9 1017.2 -9.9 -9.999 -99.9 -99.99 -9.99
2019/05/23 20:36 EDT  -99.99 -99.99   12  195   13 -99.9 -99.9 1017.2 -9.9 -9.999 -99.9 -99.99 -9.99
2019/05/23 20:42 EDT  -99.99 -99.99   11  192   12 -99.9 -99.9 1017.2 -9.9 -9.999 -99.9 -99.99 -9.99
2019/05/23 20:48 EDT  -99.99 -99.99   10  186   11 -99.9 -99.9 1017.3 -9.9 -9.999 -99.9 -99.99 -9.99
2019/05/23 20:54 EDT  -99.99 -99.99    9  184   11 -99.9 -99.9 1017.3 -9.9 -9.999 -99.9 -99.99 -9.99
2019/05/23 21:00 EDT  -99.99 -99.99    9  184   10 -99.9 -99.9 1017.4 -9.9 -9.999 -99.9 -99.99 -9.99
2019/05/23 21:06 EDT  -99.99 -99.99    9  184   10 -99.9 -99.9 1017.5 -9.9 -9.999 -99.9 -99.99 -9.99
2019/05/23 21:12 EDT  -99.99 -99.99   11  190   11 -99.9 -99.9 1017.3 -9.9 -9.999 -99.9 -99.99 -9.99
2019/05/23 21:18 EDT  -99.99 -99.99   11  188   12 -99.9 -99.9 1017.2 -9.9 -9.999 -99.9 -99.99 -9.99
2019/05/23 21:24 EDT  -99.99 -99.99   12  189   12 -99.9 -99.9 1017.2 -9.9 -9.999 -99.9 -99.99 -9.99
2019/05/23 21:30 EDT  -99.99 -99.99   11  189   12 -99.9 -99.9 1017.2 -9.9 -9.999 -99.9 -99.99 -9.99
2019/05/23 21:36 EDT  -99.99 -99.99   11  184   12 -99.9 -99.9 1017.2 -9.9 -9.999 -99.9 -99.99 -9.99
2019/05/23 21:42 EDT  -99.99 -99.99   12  184   12 -99.9 -99.9 1017.2 -9.9 -9.999 -99.9 -99.99 -9.99
2019/05/23 21:48 EDT  -99.99 -99.99   11  189   12 -99.9 -99.9 1017.1 -9.9 -9.999 -99.9 -99.99 -9.99
2019/05/23 21:54 EDT  -99.99 -99.99   11  191   12 -99.9 -99.9 1017.1 -9.9 -9.999 -99.9 -99.99 -9.99
2019/05/23 22:00 EDT  -99.99 -99.99   11  194   12 -99.9 -99.9 1017.0 -9.9 -9.999 -99.9 -99.99 -9.99
2019/05/23 22:06 EDT  -99.99 -99.99   11  192   12 -99.9 -99.9 1017.0 -9.9 -9.999 -99.9 -99.99 -9.99
2019/05/23 22:12 EDT  -99.99 -99.99   10  198   11 -99.9 -99.9 1017.1 -9.9 -9.999 -99.9 -99.99 -9.99
2019/05/23 22:18 EDT  -99.99 -99.99   10  201   11 -99.9 -99.9 1017.1 -9.9 -9.999 -99.9 -99.99 -9.99
2019/05/23 22:24 EDT  -99.99 -99.99   10  204   11 -99.9 -99.9 1017.1 -9.9 -9.999 -99.9 -99.99 -9.99
2019/05/23 22:30 EDT  -99.99 -99.99   11  205   11 -99.9 -99.9 1017.1 -9.9 -9.999 -99.9 -99.99 -9.99
2019/05/23 22:36 EDT  -99.99 -99.99   11  207   12 -99.9 -99.9 1017.1 -9.9 -9.999 -99.9 -99.99 -9.99
2019/05/23 22:42 EDT  -99.99 -99.99   11  208   12 -99.9 -99.9 1017.1 -9.9 -9.999 -99.9 -99.99 -9.99
2019/05/23 22:48 EDT  -99.99 -99.99   12  205   12 -99.9 -99.9 1017.1 -9.9 -9.999 -99.9 -99.99 -9.99
2019/05/23 22:54 EDT  -99.99 -99.99   12  206   13 -99.9 -99.9 1017.0 -9.9 -9.999 -99.9 -99.99 -9.99
2019/05/23 23:00 EDT  -99.99 -99.99   13  207   14 -99.9 -99.9 1016.9 -9.9 -9.999 -99.9 -99.99 -9.99
2019/05/23 23:06 EDT  -99.99 -99.99   14  211   15 -99.9 -99.9 1016.8 -9.9 -9.999 -99.9 -99.99 -9.99
2019/05/23 23:12 EDT  -99.99 -99.99   15  210   16 -99.9 -99.9 1016.6 -9.9 -9.999 -99.9 -99.99 -9.99
2019/05/23 23:18 EDT  -99.99 -99.99   15  213   16 -99.9 -99.9 1016.5 -9.9 -9.999 -99.9 -99.99 -9.99
2019/05/23 23:24 EDT  -99.99 -99.99   15  215   16 -99.9 -99.9 1016.5 -9.9 -9.999 -99.9 -99.99 -9.99
2019/05/23 23:30 EDT  -99.99 -99.99   15  216   17 -99.9 -99.9 1016.5 -9.9 -9.999 -99.9 -99.99 -9.99
2019/05/23 23:36 EDT  -99.99 -99.99   14  214   16 -99.9 -99.9 1016.5 -9.9 -9.999 -99.9 -99.99 -9.99
2019/05/23 23:42 EDT  -99.99 -99.99   15  212   16 -99.9 -99.9 1016.4 -9.9 -9.999 -99.9 -99.99 -9.99
2019/05/23 23:48 EDT  -99.99 -99.99   15  213   16 -99.9 -99.9 1016.3 -9.9 -9.999 -99.9 -99.99 -9.99
2019/05/23 23:54 EDT  -99.99 -99.99   15  212   16 -99.9 -99.9 1016.4 -9.9 -9.999 -99.9 -99.99 -9.99
2019/05/24 00:00 EDT  -99.99 -99.99   15  214   17 -99.9 -99.9 1016.4 -9.9 -9.999 -99.9 -99.99 -9.99
2019/05/24 00:06 EDT  -99.99 -99.99   16  214   18 -99.9 -99.9 1016.4 -9.9 -9.999 -99.9 -99.99 -9.99
2019/05/24 00:12 EDT  -99.99 -99.99   15  213   17 -99.9 -99.9 1016.3 -9.9 -9.999 -99.9 -99.99 -9.99
2019/05/24 00:18 EDT  -99.99 -99.99   15  210   16 -99.9 -99.9 1016.1 -9.9 -9.999 -99.9 -99.99 -9.99
2019/05/24 00:24 EDT  -99.99 -99.99   15  209   16 -99.9 -99.9 1016.1 -9.9 -9.999 -99.9 -99.99 -9.99
2019/05/24 00:30 EDT  -99.99 -99.99   16  208   17 -99.9 -99.9 1015.9 -9.9 -9.999 -99.9 -99.99 -9.99
2019/05/24 00:36 EDT  -99.99 -99.99   16  208   17 -99.9 -99.9 1015.9 -9.9 -9.999 -99.9 -99.99 -9.99
2019/05/24 00:42 EDT  -99.99 -99.99   16  211   17 -99.9 -99.9 1015.9 -9.9 -9.999 -99.9 -99.99 -9.99
2019/05/24 00:48 EDT  -99.99 -99.99   16  212   18 -99.9 -99.9 1015.8 -9.9 -9.999 -99.9 -99.99 -9.99
2019/05/24 00:54 EDT  -99.99 -99.99   17  212   18 -99.9 -99.9 1015.8 -9.9 -9.999 -99.9 -99.99 -9.99
2019/05/24 01:00 EDT  -99.99 -99.99   16  213   18 -99.9 -99.9 1015.7 -9.9 -9.999 -99.9 -99.99 -9.99
2019/05/24 01:06 EDT  -99.99 -99.99   17  215   18 -99.9 -99.9 1015.6 -9.9 -9.999 -99.9 -99.99 -9.99
2019/05/24 01:12 EDT  -99.99 -99.99   17  216   18 -99.9 -99.9 1015.6 -9.9 -9.999 -99.9 -99.99 -9.99
2019/05/24 01:18 EDT  -99.99 -99.99   17  215   18 -99.9 -99.9 1015.6 -9.9 -9.999 -99.9 -99.99 -9.99
2019/05/24 01:24 EDT  -99.99 -99.99   16  213   18 -99.9 -99.9 1015.6 -9.9 -9.999 -99.9 -99.99 -9.99
2019/05/24 01:30 EDT  -99.99 -99.99   16  212   17 -99.9 -99.9 1015.6 -9.9 -9.999 -99.9 -99.99 -9.99
2019/05/24 01:36 EDT  -99.99 -99.99   16  211   17 -99.9 -99.9 1015.5 -9.9 -9.999 -99.9 -99.99 -9.99
2019/05/24 01:42 EDT  -99.99 -99.99   15  209   17 -99.9 -99.9 1015.5 -9.9 -9.999 -99.9 -99.99 -9.99
2019/05/24 01:48 EDT  -99.99 -99.99   15  210   16 -99.9 -99.9 1015.5 -9.9 -9.999 -99.9 -99.99 -9.99
2019/05/24 01:54 EDT  -99.99 -99.99   15  212   16 -99.9 -99.9 1015.4 -9.9 -9.999 -99.9 -99.99 -9.99
2019/05/24 02:00 EDT  -99.99 -99.99   15  215   17 -99.9 -99.9 1015.3 -9.9 -9.999 -99.9 -99.99 -9.99
2019/05/24 02:06 EDT  -99.99 -99.99   15  213   16 -99.9 -99.9 1015.3 -9.9 -9.999 -99.9 -99.99 -9.99
2019/05/24 02:12 EDT  -99.99 -99.99   15  214   16 -99.9 -99.9 1015.2 -9.9 -9.999 -99.9 -99.99 -9.99
2019/05/24 02:18 EDT  -99.99 -99.99   15  214   16 -99.9 -99.9 1015.2 -9.9 -9.999 -99.9 -99.99 -9.99
2019/05/24 02:24 EDT  -99.99 -99.99   15  216   17 -99.9 -99.9 1015.1 -9.9 -9.999 -99.9 -99.99 -9.99
2019/05/24 02:30 EDT  -99.99 -99.99   16  218   16 -99.9 -99.9 1015.1 -9.9 -9.999 -99.9 -99.99 -9.99
2019/05/24 02:36 EDT  -99.99 -99.99   17  218   18 -99.9 -99.9 1014.9 -9.9 -9.999 -99.9 -99.99 -9.99
2019/05/24 02:42 EDT  -99.99 -99.99   16  217   17 -99.9 -99.9 1014.9 -9.9 -9.999 -99.9 -99.99 -9.99
2019/05/24 02:48 EDT  -99.99 -99.99   16  217   17 -99.9 -99.9 1014.8 -9.9 -9.999 -99.9 -99.99 -9.99
2019/05/24 02:54 EDT  -99.99 -99.99   15  217   17 -99.9 -99.9 1014.7 -9.9 -9.999 -99.9 -99.99 -9.99
2019/05/24 03:00 EDT  -99.99 -99.99   14  219   15 -99.9 -99.9 1014.8 -9.9 -9.999 -99.9 -99.99 -9.99
2019/05/24 03:06 EDT  -99.99 -99.99   13  218   15 -99.9 -99.9 1014.7 -9.9 -9.999 -99.9 -99.99 -9.99
2019/05/24 03:12 EDT  -99.99 -99.99   15  218   16 -99.9 -99.9 1014.8 -9.9 -9.999 -99.9 -99.99 -9.99
2019/05/24 03:18 EDT  -99.99 -99.99   13  220   16 -99.9 -99.9 1014.6 -9.9 -9.999 -99.9 -99.99 -9.99
2019/05/24 03:24 EDT  -99.99 -99.99   14  221   17 -99.9 -99.9 1014.6 -9.9 -9.999 -99.9 -99.99 -9.99
2019/05/24 03:30 EDT  -99.99 -99.99   13  224   16 -99.9 -99.9 1014.6 -9.9 -9.999 -99.9 -99.99 -9.99
2019/05/24 03:36 EDT  -99.99 -99.99   14  228   17 -99.9 -99.9 1014.7 -9.9 -9.999 -99.9 -99.99 -9.99
2019/05/24 03:42 EDT  -99.99 -99.99   13  229   17 -99.9 -99.9 1014.6 -9.9 -9.999 -99.9 -99.99 -9.99
2019/05/24 03:48 EDT  -99.99 -99.99   14  226   16 -99.9 -99.9 1014.5 -9.9 -9.999 -99.9 -99.99 -9.99
2019/05/24 03:54 EDT  -99.99 -99.99   13  224   14 -99.9 -99.9 1014.5 -9.9 -9.999 -99.9 -99.99 -9.99
2019/05/24 04:00 EDT  -99.99 -99.99   12  221   14 -99.9 -99.9 1014.6 -9.9 -9.999 -99.9 -99.99 -9.99
2019/05/24 04:06 EDT  -99.99 -99.99   13  222   14 -99.9 -99.9 1014.4 -9.9 -9.999 -99.9 -99.99 -9.99
2019/05/24 04:12 EDT  -99.99 -99.99   13  227   16 -99.9 -99.9 1014.5 -9.9 -9.999 -99.9 -99.99 -9.99
2019/05/24 04:18 EDT  -99.99 -99.99   13  226   16 -99.9 -99.9 1014.4 -9.9 -9.999 -99.9 -99.99 -9.99
2019/05/24 04:24 EDT  -99.99 -99.99   15  229   17 -99.9 -99.9 1014.4 -9.9 -9.999 -99.9 -99.99 -9.99
2019/05/24 04:30 EDT  -99.99 -99.99   15  232   16 -99.9 -99.9 1014.4 -9.9 -9.999 -99.9 -99.99 -9.99
2019/05/24 04:36 EDT  -99.99 -99.99   16  232   18 -99.9 -99.9 1014.4 -9.9 -9.999 -99.9 -99.99 -9.99
2019/05/24 04:42 EDT  -99.99 -99.99   14  226   16 -99.9 -99.9 1014.4 -9.9 -9.999 -99.9 -99.99 -9.99
2019/05/24 04:48 EDT  -99.99 -99.99   13  227   14 -99.9 -99.9 1014.4 -9.9 -9.999 -99.9 -99.99 -9.99
2019/05/24 04:54 EDT  -99.99 -99.99   11  225   13 -99.9 -99.9 1014.5 -9.9 -9.999 -99.9 -99.99 -9.99
2019/05/24 05:00 EDT  -99.99 -99.99   12  226   13 -99.9 -99.9 1014.5 -9.9 -9.999 -99.9 -99.99 -9.99
2019/05/24 05:06 EDT  -99.99 -99.99   12  231   13 -99.9 -99.9 1014.5 -9.9 -9.999 -99.9 -99.99 -9.99
2019/05/24 05:12 EDT  -99.99 -99.99   11  233   12 -99.9 -99.9 1014.6 -9.9 -9.999 -99.9 -99.99 -9.99
2019/05/24 05:18 EDT  -99.99 -99.99   12  230   13 -99.9 -99.9 1014.6 -9.9 -9.999 -99.9 -99.99 -9.99
2019/05/24 05:24 EDT  -99.99 -99.99   12  232   12 -99.9 -99.9 1014.6 -9.9 -9.999 -99.9 -99.99 -9.99
2019/05/24 05:30 EDT  -99.99 -99.99   11  232   12 -99.9 -99.9 1014.7 -9.9 -9.999 -99.9 -99.99 -9.99
2019/05/24 05:36 EDT  -99.99 -99.99   11  227   12 -99.9 -99.9 1014.7 -9.9 -9.999 -99.9 -99.99 -9.99
2019/05/24 05:42 EDT  -99.99 -99.99   11  228   12 -99.9 -99.9 1014.6 -9.9 -9.999 -99.9 -99.99 -9.99
2019/05/24 05:48 EDT  -99.99 -99.99   11  225   11 -99.9 -99.9 1014.6 -9.9 -9.999 -99.9 -99.99 -9.99
2019/05/24 05:54 EDT  -99.99 -99.99   10  225   11 -99.9 -99.9 1014.7 -9.9 -9.999 -99.9 -99.99 -9.99
2019/05/24 06:00 EDT  -99.99 -99.99   10  230   11 -99.9 -99.9 1014.8 -9.9 -9.999 -99.9 -99.99 -9.99
2019/05/24 06:06 EDT  -99.99 -99.99   11  229   12 -99.9 -99.9 1014.7 -9.9 -9.999 -99.9 -99.99 -9.99
2019/05/24 06:12 EDT  -99.99 -99.99   12  234   13 -99.9 -99.9 1014.8 -9.9 -9.999 -99.9 -99.99 -9.99
2019/05/24 06:18 EDT  -99.99 -99.99   12  236   13 -99.9 -99.9 1014.8 -9.9 -9.999 -99.9 -99.99 -9.99
2019/05/24 06:24 EDT  -99.99 -99.99   12  238   13 -99.9 -99.9 1014.9 -9.9 -9.999 -99.9 -99.99 -9.99
2019/05/24 06:30 EDT  -99.99 -99.99   13  236   13 -99.9 -99.9 1014.9 -9.9 -9.999 -99.9 -99.99 -9.99
2019/05/24 06:36 EDT  -99.99 -99.99   12  240   13 -99.9 -99.9 1014.8 -9.9 -9.999 -99.9 -99.99 -9.99
2019/05/24 06:42 EDT  -99.99 -99.99   12  245   13 -99.9 -99.9 1014.9 -9.9 -9.999 -99.9 -99.99 -9.99
2019/05/24 06:48 EDT  -99.99 -99.99   12  244   13 -99.9 -99.9 1015.0 -9.9 -9.999 -99.9 -99.99 -9.99
2019/05/24 06:54 EDT  -99.99 -99.99   11  244   12 -99.9 -99.9 1015.1 -9.9 -9.999 -99.9 -99.99 -9.99
2019/05/24 07:00 EDT  -99.99 -99.99   12  247   13 -99.9 -99.9 1015.0 -9.9 -9.999 -99.9 -99.99 -9.99
2019/05/24 07:06 EDT  -99.99 -99.99   11  241   13 -99.9 -99.9 1015.1 -9.9 -9.999 -99.9 -99.99 -9.99
2019/05/24 07:12 EDT  -99.99 -99.99   11  247   12 -99.9 -99.9 1015.2 -9.9 -9.999 -99.9 -99.99 -9.99
2019/05/24 07:18 EDT  -99.99 -99.99   11  247   12 -99.9 -99.9 1015.3 -9.9 -9.999 -99.9 -99.99 -9.99
2019/05/24 07:24 EDT  -99.99 -99.99   11  246   12 -99.9 -99.9 1015.4 -9.9 -9.999 -99.9 -99.99 -9.99
2019/05/24 07:30 EDT  -99.99 -99.99   11  250   14 -99.9 -99.9 1015.4 -9.9 -9.999 -99.9 -99.99 -9.99
2019/05/24 07:36 EDT  -99.99 -99.99   10  252   12 -99.9 -99.9 1015.4 -9.9 -9.999 -99.9 -99.99 -9.99
2019/05/24 07:42 EDT  -99.99 -99.99   10  255   11 -99.9 -99.9 1015.4 -9.9 -9.999 -99.9 -99.99 -9.99
2019/05/24 07:48 EDT  -99.99 -99.99   11  256   12 -99.9 -99.9 1015.4 -9.9 -9.999 -99.9 -99.99 -9.99
2019/05/24 07:54 EDT  -99.99 -99.99   11  260   12 -99.9 -99.9 1015.4 -9.9 -9.999 -99.9 -99.99 -9.99
2019/05/24 08:00 EDT  -99.99 -99.99    9  276   11 -99.9 -99.9 1015.6 -9.9 -9.999 -99.9 -99.99 -9.99
2019/05/24 08:06 EDT  -99.99 -99.99    9  275   10 -99.9 -99.9 1015.7 -9.9 -9.999 -99.9 -99.99 -9.99
2019/05/24 08:12 EDT  -99.99 -99.99   10  280   11 -99.9 -99.9 1015.8 -9.9 -9.999 -99.9 -99.99 -9.99
2019/05/24 08:18 EDT  -99.99 -99.99   10  293   11 -99.9 -99.9 1015.9 -9.9 -9.999 -99.9 -99.99 -9.99
2019/05/24 08:24 EDT  -99.99 -99.99   12  316   13 -99.9 -99.9 1016.0 -9.9 -9.999 -99.9 -99.99 -9.99
2019/05/24 08:30 EDT  -99.99 -99.99   12  332   13 -99.9 -99.9 1016.2 -9.9 -9.999 -99.9 -99.99 -9.99
2019/05/24 08:36 EDT  -99.99 -99.99   12  337   13 -99.9 -99.9 1016.2 -9.9 -9.999 -99.9 -99.99 -9.99
2019/05/24 08:42 EDT  -99.99 -99.99   12  338   14 -99.9 -99.9 1016.3 -9.9 -9.999 -99.9 -99.99 -9.99
2019/05/24 08:48 EDT  -99.99 -99.99   13  319   14 -99.9 -99.9 1016.3 -9.9 -9.999 -99.9 -99.99 -9.99
2019/05/24 08:54 EDT  -99.99 -99.99   13  319   15 -99.9 -99.9 1016.2 -9.9 -9.999 -99.9 -99.99 -9.99
2019/05/24 09:00 EDT  -99.99 -99.99   14  327   15 -99.9 -99.9 1016.3 -9.9 -9.999 -99.9 -99.99 -9.99
2019/05/24 09:06 EDT  -99.99 -99.99   15  323   17 -99.9 -99.9 1016.5 -9.9 -9.999 -99.9 -99.99 -9.99
2019/05/24 09:12 EDT  -99.99 -99.99   13  323   15 -99.9 -99.9 1016.6 -9.9 -9.999 -99.9 -99.99 -9.99
2019/05/24 09:18 EDT  -99.99 -99.99   14  325   15 -99.9 -99.9 1016.6 -9.9 -9.999 -99.9 -99.99 -9.99
2019/05/24 09:24 EDT  -99.99 -99.99   15  330   17 -99.9 -99.9 1016.8 -9.9 -9.999 -99.9 -99.99 -9.99
2019/05/24 09:30 EDT  -99.99 -99.99   16  336   17 -99.9 -99.9 1016.8 -9.9 -9.999 -99.9 -99.99 -9.99
2019/05/24 09:36 EDT  -99.99 -99.99   16  339   18 -99.9 -99.9 1016.8 -9.9 -9.999 -99.9 -99.99 -9.99
2019/05/24 09:42 EDT  -99.99 -99.99   16  341   18 -99.9 -99.9 1016.9 -9.9 -9.999 -99.9 -99.99 -9.99
2019/05/24 09:48 EDT  -99.99 -99.99   15  342   17 -99.9 -99.9 1016.8 -9.9 -9.999 -99.9 -99.99 -9.99
2019/05/24 09:54 EDT  -99.99 -99.99   14  344   16 -99.9 -99.9 1016.7 -9.9 -9.999 -99.9 -99.99 -9.99
2019/05/24 10:00 EDT  -99.99 -99.99   16  345   18 -99.9 -99.9 1016.7 -9.9 -9.999 -99.9 -99.99 -9.99
2019/05/24 10:06 EDT  -99.99 -99.99   16  347   18 -99.9 -99.9 1016.8 -9.9 -9.999 -99.9 -99.99 -9.99
2019/05/24 10:12 EDT  -99.99 -99.99   15  351   17 -99.9 -99.9 1016.6 -9.9 -9.999 -99.9 -99.99 -9.99
2019/05/24 10:18 EDT  -99.99 -99.99   15  354   17 -99.9 -99.9 1016.6 -9.9 -9.999 -99.9 -99.99 -9.99
2019/05/24 10:24 EDT  -99.99 -99.99   15  354   17 -99.9 -99.9 1016.7 -9.9 -9.999 -99.9 -99.99 -9.99
2019/05/24 10:30 EDT  -99.99 -99.99   15  355   17 -99.9 -99.9 1016.8 -9.9 -9.999 -99.9 -99.99 -9.99
2019/05/24 10:36 EDT  -99.99 -99.99   14  355   16 -99.9 -99.9 1017.0 -9.9 -9.999 -99.9 -99.99 -9.99
2019/05/24 10:42 EDT  -99.99 -99.99   13  352   15 -99.9 -99.9 1016.9 -9.9 -9.999 -99.9 -99.99 -9.99
2019/05/24 10:48 EDT  -99.99 -99.99   12  354   14 -99.9 -99.9 1017.0 -9.9 -9.999 -99.9 -99.99 -9.99
2019/05/24 10:54 EDT  -99.99 -99.99   13  353   14 -99.9 -99.9 1017.0 -9.9 -9.999 -99.9 -99.99 -9.99
2019/05/24 11:00 EDT  -99.99 -99.99   11  352   14 -99.9 -99.9 1017.1 -9.9 -9.999 -99.9 -99.99 -9.99
2019/05/24 11:06 EDT  -99.99 -99.99   11  352   13 -99.9 -99.9 1017.2 -9.9 -9.999 -99.9 -99.99 -9.99
2019/05/24 11:12 EDT  -99.99 -99.99   10  352   12 -99.9 -99.9 1017.2 -9.9 -9.999 -99.9 -99.99 -9.99
2019/05/24 11:18 EDT  -99.99 -99.99   11  345   12 -99.9 -99.9 1017.2 -9.9 -9.999 -99.9 -99.99 -9.99
2019/05/24 11:24 EDT  -99.99 -99.99   11  347   12 -99.9 -99.9 1017.0 -9.9 -9.999 -99.9 -99.99 -9.99
2019/05/24 11:30 EDT  -99.99 -99.99   11  347   13 -99.9 -99.9 1016.9 -9.9 -9.999 -99.9 -99.99 -9.99
2019/05/24 11:36 EDT  -99.99 -99.99   13  349   14 -99.9 -99.9 1016.9 -9.9 -9.999 -99.9 -99.99 -9.99
2019/05/24 11:42 EDT  -99.99 -99.99   10  354   13 -99.9 -99.9 1017.0 -9.9 -9.999 -99.9 -99.99 -9.99
2019/05/24 11:48 EDT  -99.99 -99.99   10    5   12 -99.9 -99.9 1017.0 -9.9 -9.999 -99.9 -99.99 -9.99
2019/05/24 11:54 EDT  -99.99 -99.99   12    2   14 -99.9 -99.9 1017.0 -9.9 -9.999 -99.9 -99.99 -9.99
2019/05/24 12:00 EDT  -99.99 -99.99   11    4   13 -99.9 -99.9 1017.0 -9.9 -9.999 -99.9 -99.99 -9.99
2019/05/24 12:06 EDT  -99.99 -99.99    9   23   11 -99.9 -99.9 1017.1 -9.9 -9.999 -99.9 -99.99 -9.99
2019/05/24 12:12 EDT  -99.99 -99.99    9   31   10 -99.9 -99.9 1017.2 -9.9 -9.999 -99.9 -99.99 -9.99
2019/05/24 12:18 EDT  -99.99 -99.99   11   17   13 -99.9 -99.9 1017.2 -9.9 -9.999 -99.9 -99.99 -9.99
2019/05/24 12:24 EDT  -99.99 -99.99   11    5   13 -99.9 -99.9 1017.2 -9.9 -9.999 -99.9 -99.99 -9.99
2019/05/24 12:30 EDT  -99.99 -99.99   11  353   12 -99.9 -99.9 1017.1 -9.9 -9.999 -99.9 -99.99 -9.99
2019/05/24 12:36 EDT  -99.99 -99.99   11  353   13 -99.9 -99.9 1017.1 -9.9 -9.999 -99.9 -99.99 -9.99
2019/05/24 12:42 EDT  -99.99 -99.99   11  353   12 -99.9 -99.9 1017.1 -9.9 -9.999 -99.9 -99.99 -9.99
2019/05/24 12:48 EDT  -99.99 -99.99   12  353   14 -99.9 -99.9 1017.2 -9.9 -9.999 -99.9 -99.99 -9.99
2019/05/24 12:54 EDT  -99.99 -99.99   11  352   14 -99.9 -99.9 1017.2 -9.9 -9.999 -99.9 -99.99 -9.99
2019/05/24 13:00 EDT  -99.99 -99.99   11    1   12 -99.9 -99.9 1017.1 -9.9 -9.999 -99.9 -99.99 -9.99
2019/05/24 13:06 EDT  -99.99 -99.99   12    3   13 -99.9 -99.9 1017.1 -9.9 -9.999 -99.9 -99.99 -9.99
2019/05/24 13:12 EDT  -99.99 -99.99   12    7   15 -99.9 -99.9 1017.2 -9.9 -9.999 -99.9 -99.99 -9.99
2019/05/24 13:18 EDT  -99.99 -99.99   13   11   15 -99.9 -99.9 1017.2 -9.9 -9.999 -99.9 -99.99 -9.99
2019/05/24 13:24 EDT  -99.99 -99.99   13   17   14 -99.9 -99.9 1017.2 -9.9 -9.999 -99.9 -99.99 -9.99
2019/05/24 13:30 EDT  -99.99 -99.99   12   13   14 -99.9 -99.9 1017.2 -9.9 -9.999 -99.9 -99.99 -9.99
2019/05/24 13:36 EDT  -99.99 -99.99   14   12   16 -99.9 -99.9 1017.2 -9.9 -9.999 -99.9 -99.99 -9.99
2019/05/24 13:42 EDT  -99.99 -99.99   14    7   15 -99.9 -99.9 1017.2 -9.9 -9.999 -99.9 -99.99 -9.99
2019/05/24 13:48 EDT  -99.99 -99.99   14    2   16 -99.9 -99.9 1017.2 -9.9 -9.999 -99.9 -99.99 -9.99
2019/05/24 13:54 EDT  -99.99 -99.99   13    4   15 -99.9 -99.9 1017.0 -9.9 -9.999 -99.9 -99.99 -9.99
2019/05/24 14:00 EDT  -99.99 -99.99   13    6   14 -99.9 -99.9 1016.9 -9.9 -9.999 -99.9 -99.99 -9.99
2019/05/24 14:06 EDT  -99.99 -99.99   14    4   15 -99.9 -99.9 1016.9 -9.9 -9.999 -99.9 -99.99 -9.99
2019/05/24 14:12 EDT  -99.99 -99.99   16    3   18 -99.9 -99.9 1016.9 -9.9 -9.999 -99.9 -99.99 -9.99
2019/05/24 14:18 EDT  -99.99 -99.99   16  353   17 -99.9 -99.9 1016.8 -9.9 -9.999 -99.9 -99.99 -9.99
2019/05/24 14:24 EDT  -99.99 -99.99   16  352   17 -99.9 -99.9 1016.8 -9.9 -9.999 -99.9 -99.99 -9.99
2019/05/24 14:30 EDT  -99.99 -99.99 -999 -999 -999 -99.9 -99.9 1016.8 -9.9 -9.999 -99.9 -99.99 -9.99
2019/05/24 14:36 EDT  -99.99 -99.99   15    2   16 -99.9 -99.9 1016.8 -9.9 -9.999 -99.9 -99.99 -9.99
2019/05/24 14:42 EDT  -99.99 -99.99   16    1   18 -99.9 -99.9 1016.8 -9.9 -9.999 -99.9 -99.99 -9.99
2019/05/24 14:48 EDT  -99.99 -99.99   16  358   17 -99.9 -99.9 1016.8 -9.9 -9.999 -99.9 -99.99 -9.99
2019/05/24 14:54 EDT  -99.99 -99.99   16  359   18 -99.9 -99.9 1016.8 -9.9 -9.999 -99.9 -99.99 -9.99
2019/05/24 15:00 EDT  -99.99 -99.99   16  352   18 -99.9 -99.9 1016.8 -9.9 -9.999 -99.9 -99.99 -9.99
2019/05/24 15:06 EDT  -99.99 -99.99   15    1   17 -99.9 -99.9 1016.7 -9.9 -9.999 -99.9 -99.99 -9.99
2019/05/24 15:12 EDT  -99.99 -99.99   15  353   17 -99.9 -99.9 1016.6 -9.9 -9.999 -99.9 -99.99 -9.99
2019/05/24 15:18 EDT  -99.99 -99.99   12    8   15 -99.9 -99.9 1016.6 -9.9 -9.999 -99.9 -99.99 -9.99
2019/05/24 15:24 EDT  -99.99 -99.99   15   12   17 -99.9 -99.9 1016.5 -9.9 -9.999 -99.9 -99.99 -9.99
2019/05/24 15:30 EDT  -99.99 -99.99   16   11   18 -99.9 -99.9 1016.4 -9.9 -9.999 -99.9 -99.99 -9.99
2019/05/24 15:36 EDT  -99.99 -99.99   16   13   18 -99.9 -99.9 1016.5 -9.9 -9.999 -99.9 -99.99 -9.99
2019/05/24 15:42 EDT  -99.99 -99.99   18   12   19 -99.9 -99.9 1016.4 -9.9 -9.999 -99.9 -99.99 -9.99
2019/05/24 15:48 EDT  -99.99 -99.99   19   11   21 -99.9 -99.9 1016.4 -9.9 -9.999 -99.9 -99.99 -9.99
2019/05/24 15:54 EDT  -99.99 -99.99   20    9   21 -99.9 -99.9 1016.4 -9.9 -9.999 -99.9 -99.99 -9.99
2019/05/24 16:00 EDT  -99.99 -99.99   20    6   21 -99.9 -99.9 1016.4 -9.9 -9.999 -99.9 -99.99 -9.99
2019/05/24 16:06 EDT  -99.99 -99.99   18    2   21 -99.9 -99.9 1016.5 -9.9 -9.999 -99.9 -99.99 -9.99
2019/05/24 16:12 EDT  -99.99 -99.99   17    1   20 -99.9 -99.9 1016.5 -9.9 -9.999 -99.9 -99.99 -9.99
2019/05/24 16:18 EDT  -99.99 -99.99   16  353   18 -99.9 -99.9 1016.7 -9.9 -9.999 -99.9 -99.99 -9.99
2019/05/24 16:24 EDT  -99.99 -99.99   16  357   19 -99.9 -99.9 1016.7 -9.9 -9.999 -99.9 -99.99 -9.99
2019/05/24 16:30 EDT  -99.99 -99.99   15  360   19 -99.9 -99.9 1016.7 -9.9 -9.999 -99.9 -99.99 -9.99
2019/05/24 16:36 EDT  -99.99 -99.99 -999 -999 -999 -99.9 -99.9 -999.9 -9.9 -9.999 -99.9 -99.99 -9.99
2019/05/24 16:42 EDT  -99.99 -99.99 -999 -999 -999 -99.9 -99.9 -999.9 -9.9 -9.999 -99.9 -99.99 -9.99

Revised: 08/08/2018
NOAA / National Ocean Service
Web site owner: Center for Operational Oceanographic Products and Services